GFSNE_250_rhum_000.txt.gz
RH
62 54 60 80 84 100 100 100 100 100 100 100 100 100 100 100 100 100 100 82 100 100 100 86 83 83 60 90 82 74 73 65 67 60 57 51 45 35
75 77 66 68 78 89 93 100 100 100 100 100 100 100 100 100 100 100 98 100 100 100 88 50 93 62 58 84 72 78 66 67 58 60 50 45 36 28
79 70 72 76 76 88 100 100 100 100 100 100 100 100 100 100 100 100 81 100 100 100 100 82 78 54 95 90 67 80 65 61 62 58 46 39 31 26
71 61 63 68 89 99 100 100 100 100 100 99 100 100 100 100 100 96 81 100 100 100 93 74 65 78 77 83 76 74 60 55 70 47 44 33 27 17
62 55 42 52 98 100 97 100 100 100 100 100 100 100 100 100 98 98 100 81 87 76 87 99 73 59 93 83 80 66 62 71 57 46 36 29 26 12
58 38 32 85 96 99 100 100 100 100 100 100 100 100 100 100 100 100 100 100 82 100 96 81 78 74 90 78 74 64 65 57 45 42 33 28 18 11
51 29 42 98 100 100 100 100 100 100 100 100 100 100 98 100 100 97 96 100 74 92 74 80 78 81 85 78 66 56 60 50 47 37 31 25 14 12
42 28 62 88 100 100 100 100 100 100 100 100 100 94 100 100 100 100 100 100 100 100 94 81 77 90 78 68 59 56 66 48 40 33 29 16 15 14
32 27 69 97 100 100 100 100 100 100 100 100 99 100 100 100 100 100 100 100 95 100 87 77 92 84 71 67 60 70 54 49 36 30 22 13 18 17
24 25 73 100 100 100 100 100 100 100 100 100 100 100 100 100 100 100 100 100 96 100 86 96 80 83 78 67 70 59 50 41 34 30 15 14 18 19
22 22 80 100 100 100 100 100 100 100 100 100 100 100 100 100 100 100 96 100 100 100 97 97 94 94 94 67 63 46 52 39 32 24 17 17 22 19
22 24 84 100 100 100 100 100 100 100 100 100 100 100 100 100 100 100 100 100 100 92 90 94 84 100 82 58 48 49 48 36 28 17 21 21 21 16
23 27 91 100 100 100 100 100 100 100 100 100 100 100 100 100 100 100 94 100 100 94 97 81 94 94 64 55 48 47 41 32 21 15 23 21 18 15
24 38 88 95 100 100 100 100 100 100 100 100 100 100 100 100 100 96 100 98 100 100 83 84 92 78 59 53 51 49 33 26 16 17 21 18 15 14
24 39 75 85 90 100 100 100 100 100 100 100 100 100 100 100 100 100 100 100 100 89 76 100 90 67 60 53 52 42 34 20 16 18 20 15 14 14
22 29 32 32 38 80 100 100 100 100 100 100 100 100 100 100 100 100 100 100 97 74 82 81 82 61 52 53 48 36 29 23 19 20 18 14 15 14
18 18 11 12 39 92 100 100 100 100 100 100 100 100 100 100 100 100 100 100 77 82 89 79 82 57 54 58 46 31 26 18 20 20 16 15 15 14
17 14 6 22 54 100 100 100 100 100 100 100 100 100 100 100 100 100 100 83 75 84 70 83 69 54 59 48 40 25 16 17 19 15 14 14 13 13
16 8 13 61 100 100 100 100 100 100 100 100 100 100 100 100 100 100 80 72 90 75 84 75 60 60 50 38 31 18 14 20 15 12 11 12 12 12
14 7 31 88 100 100 100 100 100 100 100 100 100 100 100 100 99 78 73 73 95 83 73 64 61 58 46 37 24 16 18 17 11 11 12 12 10 11
11 9 75 99 100 100 100 100 100 100 100 100 100 100 98 97 77 75 79 76 89 80 67 65 57 50 40 29 16 20 19 11 10 11 12 10 10 10
12 27 88 100 100 100 100 100 100 100 100 100 100 100 82 77 74 88 93 98 82 88 68 65 53 42 33 18 19 21 14 11 12 12 10 8 7 6
17 46 88 100 100 100 100 100 100 100 100 100 91 96 77 85 91 74 70 80 88 55 67 53 46 37 24 17 21 17 10 11 11 9 9 8 7 6

GFSNE_250_rhum_003.txt.gz
RH
92 87 92 98 83 86 86 70 66 64 63 86 100 100 100 100 100 100 100 100 100 100 100 100 100 98 100 95 79 98 80 67 71 73 59 70 64 60
87 75 96 91 89 95 87 67 52 58 38 62 100 100 100 100 100 100 100 100 100 100 100 100 100 100 100 100 100 79 84 61 65 65 66 67 75 62
68 74 82 89 100 100 83 69 48 55 31 92 100 100 100 100 100 100 100 100 100 100 100 100 100 100 100 96 88 79 70 61 80 76 69 75 53 55
75 78 82 96 100 100 92 60 49 49 31 97 100 100 100 100 100 100 100 100 100 100 100 100 100 100 100 93 81 80 84 71 86 78 88 72 52 44
82 85 80 87 95 100 83 52 54 43 35 99 100 100 100 100 100 100 100 100 100 100 81 93 100 100 98 74 79 68 82 78 76 80 83 56 49 37
69 69 74 65 81 75 66 56 56 38 44 99 100 100 100 100 100 100 100 100 100 100 94 100 97 99 78 87 78 68 92 83 76 80 61 53 40 30
50 61 64 67 63 75 63 44 55 30 52 100 100 100 100 100 100 100 100 100 100 100 100 100 92 95 91 87 70 93 98 88 73 68 53 48 35 32
52 57 59 61 61 61 57 40 44 25 56 100 100 100 100 100 100 100 100 100 100 100 100 100 91 94 94 85 75 85 97 74 76 61 51 40 33 26
48 49 51 55 56 51 36 35 28 24 65 100 100 100 100 100 100 100 100 100 100 100 100 96 93 95 92 92 82 90 75 78 80 60 45 37 30 18
44 42 40 51 33 30 24 28 22 25 70 100 100 100 100 100 100 100 100 100 100 100 100 97 89 100 92 92 92 93 76 83 65 54 43 33 26 17
34 33 28 27 26 20 26 23 23 31 90 100 100 100 100 100 100 100 100 100 100 100 100 98 98 98 93 86 82 96 80 72 59 50 38 33 26 19
29 26 22 15 18 22 22 21 22 44 99 100 100 100 100 100 100 100 100 100 100 100 100 100 100 93 89 78 88 79 78 68 53 47 34 30 20 20
21 18 14 16 20 24 21 19 24 54 100 100 100 100 100 100 100 100 100 100 100 100 100 100 100 100 95 95 77 74 61 57 50 34 29 22 17 17
16 15 17 22 23 20 16 20 26 72 100 100 100 100 100 100 100 100 100 100 100 100 100 100 99 100 90 91 69 61 62 52 35 29 24 16 18 16
16 18 20 21 18 14 17 22 26 92 100 100 100 100 100 100 100 100 100 100 100 100 100 100 91 94 88 78 64 70 61 39 30 25 17 16 17 14
14 16 21 14 12 16 20 23 32 81 100 100 100 100 100 100 100 100 100 100 100 99 97 91 95 88 78 74 83 58 43 35 30 25 18 18 14 13
18 17 10 11 14 20 22 22 25 58 100 100 100 100 100 100 100 100 100 100 100 99 88 90 92 73 73 88 81 50 41 32 29 19 19 15 13 12
15 8 9 12 17 22 20 18 15 35 96 100 100 100 100 100 100 100 100 100 91 90 86 74 78 92 87 79 50 43 30 26 18 17 15 12 13 12
8 8 10 14 20 21 17 19 41 88 100 100 100 100 100 100 100 100 100 100 88 82 68 78 86 74 76 53 44 34 25 16 17 15 11 11 9 8
8 9 12 18 20 19 26 68 95 100 99 100 100 100 100 100 100 100 100 92 75 65 87 75 78 78 48 45 34 30 22 16 14 11 11 11 10 8
10 11 15 21 20 24 52 85 100 100 100 100 100 100 100 100 100 98 95 78 68 86 85 89 70 49 46 37 33 26 17 16 11 9 8 8 6 5
12 14 23 21 20 52 87 92 100 100 100 100 100 100 100 100 99 83 83 68 89 83 92 77 52 49 41 34 28 18 17 12 11 8 6 5 5 4
15 23 24 18 33 71 85 100 100 100 100 100 98 100 99 95 96 87 69 79 68 95 77 60 49 46 37 30 17 16 12 10 7 6 5 5 4 5

GFSNE_250_rhum_006.txt.gz
RH
48 66 72 67 62 66 70 72 74 80 86 90 80 72 73 73 72 56 37 64 100 100 100 100 100 100 100 100 100 98 83 100 100 97 78 62 64 73
52 61 52 52 55 62 73 76 72 70 71 87 78 70 78 80 83 62 41 71 94 100 100 100 100 100 100 100 98 97 100 97 89 72 68 66 70 81
47 46 49 62 70 68 72 72 70 74 72 84 80 74 75 83 81 64 43 70 74 100 100 100 100 100 100 100 100 99 100 84 82 69 71 70 79 86
40 40 45 67 73 64 67 70 71 72 74 71 75 65 70 81 77 59 55 89 87 100 100 100 100 100 100 90 87 100 97 90 88 84 72 78 87 84
34 35 42 55 54 60 61 69 65 66 63 58 55 56 58 73 58 59 69 92 85 100 100 100 100 100 86 86 97 99 94 93 84 81 72 82 89 80
31 31 33 41 46 49 57 67 62 58 58 54 46 45 58 58 53 64 78 93 92 100 100 100 100 100 83 76 86 97 88 84 82 89 79 79 76 85
30 31 34 38 47 52 49 47 50 51 54 42 51 56 57 39 60 66 100 100 94 100 100 100 100 98 94 89 100 100 80 92 92 84 79 79 93 81
35 38 39 42 43 43 42 44 43 40 38 40 54 50 38 40 54 88 100 100 100 100 100 100 100 100 92 87 100 82 94 84 87 87 79 86 91 65
39 41 42 42 39 33 28 29 29 32 34 41 43 33 28 51 52 97 100 100 100 100 100 100 100 98 91 100 92 94 84 89 91 87 85 87 88 54
29 31 30 29 25 20 20 23 26 28 27 30 27 22 40 44 100 100 100 100 100 100 100 100 100 88 100 100 98 84 98 98 98 84 88 94 61 45
14 15 15 18 20 23 22 21 22 16 20 22 20 32 38 30 75 100 100 100 100 100 100 100 100 100 100 100 94 98 100 100 86 86 86 65 48 37
14 14 14 10 10 12 15 17 13 18 19 20 26 34 22 47 97 100 100 100 100 100 100 100 100 100 100 100 96 100 99 78 82 88 72 57 36 33
11 10 8 10 11 14 14 13 15 20 22 34 30 20 31 75 100 100 100 100 100 100 100 100 100 100 100 100 100 95 82 87 91 65 61 36 32 35
8 9 10 11 11 12 13 15 15 23 30 27 18 24 39 99 100 100 100 100 100 100 100 100 100 100 100 100 95 90 70 86 65 48 37 33 31 29
9 10 11 11 12 13 14 16 17 22 25 18 19 26 70 100 100 100 100 100 100 100 100 100 100 100 100 100 92 70 88 55 45 36 30 29 27 25
10 10 10 9 9 10 14 17 21 25 16 16 20 40 97 100 100 100 100 100 100 100 100 100 100 100 100 84 81 82 54 45 36 33 30 28 24 19
9 10 11 11 13 14 18 21 23 14 14 19 26 53 100 100 100 100 100 100 100 100 100 100 99 96 80 84 87 60 42 34 34 34 27 22 18 14
8 10 12 14 15 20 24 22 12 13 18 25 29 82 100 100 100 100 100 100 100 100 100 100 85 83 85 75 56 47 38 35 29 28 26 20 13 12
8 10 14 15 20 23 18 12 13 18 24 25 46 95 100 100 100 100 100 100 100 100 93 80 98 84 69 57 44 41 32 27 26 22 18 12 10 10
9 9 10 12 17 16 12 14 17 22 22 42 53 96 100 89 83 84 100 100 97 84 92 96 77 69 62 50 43 30 30 26 20 14 9 8 8 8
9 9 9 12 12 12 14 18 23 25 32 76 90 100 100 100 68 98 94 97 98 100 82 64 65 60 55 43 33 25 22 21 16 10 8 6 5 6
10 10 10 10 12 17 20 26 29 51 58 81 94 99 91 83 100 92 100 100 93 84 60 66 70 56 42 32 26 21 18 10 8 9 7 4 4 4
10 11 12 15 21 25 31 35 60 85 80 97 100 90 92 100 100 100 100 92 82 71 70 81 60 41 34 25 20 16 12 10 8 5 4 4 4 4

GFSNE_250_rhum_009.txt.gz
RH
66 62 52 69 65 58 89 73 39 41 44 48 52 62 59 71 87 81 73 67 69 66 67 68 76 63 86 96 100 97 94 83 95 100 84 73 66 86
54 51 54 76 78 77 79 68 47 36 31 36 41 41 40 54 73 80 72 66 70 73 66 68 76 71 89 92 98 96 95 98 86 82 74 69 72 75
40 44 48 50 78 70 70 51 35 39 33 32 38 38 42 51 68 70 58 63 70 66 58 67 72 75 98 100 97 100 100 100 86 85 63 81 89 87
24 37 32 32 32 31 33 39 43 41 35 33 38 39 46 53 63 57 58 61 66 64 69 73 70 88 100 100 100 100 100 100 90 73 77 93 86 88
24 23 23 25 26 26 27 30 35 40 40 40 47 50 48 56 62 64 62 60 59 70 76 74 78 96 95 100 100 100 100 94 98 86 90 99 83 76
24 21 19 19 20 22 24 27 29 32 38 41 46 58 63 61 57 60 51 50 48 63 85 82 96 100 98 100 100 100 92 100 86 99 96 87 86 76
22 17 16 16 17 17 18 23 25 31 37 39 47 48 49 41 55 59 42 48 49 79 90 100 100 100 100 100 100 97 91 85 100 94 86 88 77 74
14 14 14 16 17 16 16 15 15 17 18 19 25 28 28 24 28 30 37 53 49 73 100 100 100 100 100 100 100 93 88 100 96 91 94 74 80 88
12 13 14 16 18 16 15 17 18 17 18 17 18 23 21 17 18 26 38 41 62 100 99 100 100 100 100 100 100 98 97 88 93 98 77 92 93 96
13 12 15 14 12 11 11 12 16 15 16 16 15 14 11 15 17 27 30 35 42 97 100 100 100 100 100 100 100 92 95 100 100 79 90 97 95 95
8 9 10 10 11 11 11 12 13 13 12 11 10 10 13 21 20 23 29 32 62 98 100 100 100 100 100 100 84 98 100 94 96 88 98 97 93 97
6 8 9 8 8 8 8 8 8 9 9 9 11 13 15 19 21 27 33 59 80 64 99 100 100 100 100 100 99 99 100 98 90 99 100 91 97 80
6 6 6 6 6 6 7 7 8 10 11 12 13 17 19 21 27 43 49 43 50 100 100 100 100 100 100 92 100 100 91 94 86 99 95 87 73 68
7 8 8 8 6 7 8 8 9 13 15 15 17 18 18 25 43 40 28 51 92 100 100 100 100 100 100 100 92 80 83 89 100 92 91 69 63 49
8 8 8 8 9 10 10 10 12 12 13 14 14 17 24 37 28 26 59 98 100 100 100 100 100 100 100 100 94 100 100 95 89 85 73 64 48 43
8 8 9 10 11 11 10 11 13 13 13 14 16 25 30 20 20 55 87 100 100 100 100 100 100 100 92 100 100 100 94 88 77 67 68 42 41 35
8 9 9 9 9 9 10 11 15 16 17 19 19 17 15 12 47 84 100 100 100 100 100 100 100 98 95 95 98 87 86 68 62 53 43 36 32 26
6 7 7 8 8 9 10 11 17 19 20 17 18 18 12 18 57 100 83 94 96 93 91 85 93 92 98 96 85 77 74 54 41 34 32 29 22 17
7 7 7 7 7 8 10 16 20 25 26 26 19 13 23 46 88 99 74 67 85 98 95 98 96 92 86 74 77 67 49 41 32 28 25 21 13 11
6 7 8 8 8 9 12 18 24 27 27 15 13 18 35 62 96 98 78 71 91 100 97 93 90 79 68 68 53 41 35 30 25 22 14 8 8 8
6 7 8 8 9 9 11 16 20 22 14 14 21 33 60 85 84 78 51 85 95 89 80 84 76 72 70 52 37 34 25 25 21 13 8 6 6 5
6 7 8 10 10 11 12 15 16 14 15 18 24 40 62 67 41 69 97 100 92 88 88 79 76 58 42 38 33 29 20 12 9 8 6 5 4 4
8 8 10 12 12 12 14 15 17 19 24 43 45 68 62 53 99 100 93 87 97 92 92 77 56 44 39 32 26 19 9 8 6 5 4 4 4 5

GFSNE_250_rhum_012.txt.gz
RH
95 64 60 69 85 74 66 61 42 38 36 45 42 60 73 82 79 80 58 49 40 41 44 48 59 70 76 82 82 78 73 86 91 100 100 100 99 100
52 53 67 63 44 41 36 35 30 31 34 44 42 38 38 42 51 48 43 42 47 54 53 61 59 67 66 67 70 72 71 89 88 100 100 100 99 91
42 33 31 27 25 30 27 28 29 32 28 33 36 35 36 34 35 38 44 48 50 56 66 62 68 67 68 71 68 70 80 92 90 98 99 95 96 88
29 28 25 23 22 21 22 23 20 20 24 22 26 27 30 37 36 41 46 46 49 59 76 56 60 66 78 73 71 62 86 91 100 100 96 87 87 99
25 21 18 18 19 18 15 16 19 19 20 18 18 22 22 26 28 32 34 40 43 54 55 53 64 71 62 70 74 98 99 96 100 100 94 86 96 98
16 14 15 15 15 16 16 18 21 22 20 22 19 22 25 22 22 28 36 39 41 65 46 55 68 76 60 64 78 100 96 100 100 100 89 90 100 97
14 13 14 14 16 15 13 17 15 15 19 18 17 18 22 24 26 29 28 29 37 54 62 65 61 48 62 86 95 100 100 100 100 100 97 100 100 95
14 14 12 12 13 10 12 13 14 15 16 17 12 12 15 17 17 16 18 24 24 33 40 43 39 37 92 78 100 100 100 100 100 100 100 100 100 100
11 9 10 10 9 10 10 10 12 10 9 7 8 13 14 16 13 14 15 20 20 24 32 26 21 36 99 100 100 100 100 100 100 100 100 100 100 91
6 6 8 9 7 7 7 6 6 6 7 6 8 11 11 12 14 16 16 18 20 22 18 17 36 69 100 100 100 100 100 100 100 100 100 98 94 90
4 5 6 6 6 5 5 6 6 8 7 7 7 8 8 10 12 10 11 11 11 13 19 30 43 73 100 100 100 100 100 100 97 94 98 99 96 93
5 6 7 7 7 7 6 7 9 11 12 10 7 8 11 11 10 13 14 14 17 21 24 27 44 91 100 100 100 100 100 100 100 100 100 98 98 100
6 7 8 7 8 8 9 10 11 13 12 10 11 12 13 14 15 15 16 18 21 22 27 35 64 100 100 100 100 100 100 100 100 97 93 100 89 85
6 7 8 8 8 8 8 10 10 10 12 15 14 15 16 16 18 18 18 18 21 24 40 67 78 100 100 100 100 100 100 100 99 89 100 85 93 95
5 6 6 6 6 6 6 8 10 11 13 14 14 15 16 15 16 18 17 20 26 37 49 45 50 66 83 97 100 100 100 100 100 100 90 92 98 92
4 5 6 6 6 6 6 8 10 10 11 11 13 15 15 15 14 14 18 26 41 42 34 47 63 83 96 100 100 100 100 100 88 91 89 91 85 87
3 3 4 5 6 6 6 7 8 10 11 11 12 17 17 17 16 27 42 45 27 32 67 92 96 100 100 100 100 100 96 95 94 89 83 93 69 56
3 3 4 5 5 6 7 7 8 9 10 11 16 20 20 22 28 33 26 16 25 53 92 92 100 85 87 95 98 98 94 87 86 88 77 61 43 40
4 4 5 5 6 7 8 8 8 10 12 16 22 21 14 11 12 9 9 22 47 86 88 87 85 96 100 94 95 94 95 81 69 57 44 40 34 25
4 5 6 6 7 8 9 9 9 12 18 22 27 24 19 18 14 19 25 38 44 64 81 76 85 99 99 94 90 77 66 54 47 39 34 26 18 12
6 6 6 7 8 9 9 10 11 15 22 27 30 24 13 13 20 40 64 86 79 63 71 90 97 90 75 60 56 50 49 41 36 24 14 12 9 8
7 8 8 8 9 10 11 12 12 15 22 25 20 13 16 26 46 79 85 91 83 79 92 83 64 56 54 50 45 36 34 31 19 11 9 6 5 5
8 9 10 10 10 12 13 13 14 16 17 14 16 29 48 59 78 96 88 94 100 93 72 62 54 49 47 40 34 28 17 10 9 6 5 5 5 6

GFSNE_250_rhum_015.txt.gz
RH
47 44 44 51 64 74 68 48 37 30 31 38 29 31 32 35 33 34 37 38 37 42 46 46 45 45 49 56 60 61 66 62 72 81 85 93 90 85
50 46 42 39 40 38 33 30 35 32 25 28 28 31 26 26 26 27 29 30 34 31 34 40 44 42 39 49 58 60 58 67 78 82 88 91 96 87
39 35 30 26 25 24 20 19 19 20 18 17 19 20 22 24 26 29 30 33 32 34 33 33 39 41 44 44 53 60 72 78 86 90 92 99 92 91
24 24 20 19 17 17 16 17 15 15 13 12 14 17 20 21 23 26 27 30 35 40 42 42 39 38 42 46 55 51 65 71 82 93 96 87 91 83
20 19 15 16 17 17 17 14 10 10 12 9 9 14 16 18 19 20 26 29 33 38 42 44 46 43 48 56 67 53 61 67 81 95 98 85 87 92
16 16 16 12 10 11 11 11 10 9 8 7 6 8 10 16 14 17 19 23 26 28 30 34 35 33 35 55 57 54 63 66 90 95 93 88 87 97
11 9 9 8 8 8 9 8 7 6 6 7 6 6 10 11 12 13 16 20 21 25 24 23 26 22 30 52 58 56 58 63 84 95 92 98 100 100
8 10 10 8 7 6 5 5 5 4 4 4 5 8 9 11 12 11 12 13 17 16 13 14 19 24 33 44 40 45 61 58 79 100 92 100 99 100
7 6 6 6 6 6 6 5 5 4 4 5 6 6 7 7 6 6 6 6 6 8 10 16 18 21 23 31 44 46 49 60 81 88 100 100 100 100
5 5 5 5 5 5 6 6 6 5 5 5 6 8 7 7 6 6 6 6 8 9 11 14 15 18 22 31 33 36 41 45 64 90 100 100 100 100
4 5 4 5 5 5 6 7 8 8 8 8 7 7 8 9 8 7 10 8 9 10 10 10 12 16 18 23 26 27 32 48 91 100 100 100 100 100
4 4 4 4 5 5 5 6 7 7 8 9 8 9 10 10 11 10 11 9 9 11 11 10 12 13 14 17 20 26 45 78 100 100 100 100 100 100
3 3 4 4 4 4 4 5 6 7 6 7 7 7 10 11 11 11 10 11 13 14 12 13 16 17 19 26 32 43 73 94 100 100 100 100 100 100
2 2 3 3 4 3 3 5 6 6 7 7 8 8 10 10 11 11 12 14 16 17 17 18 20 22 25 30 36 53 73 93 100 100 100 100 100 100
2 2 3 3 3 3 3 5 5 6 7 7 7 10 13 12 12 13 15 16 16 17 19 19 20 24 37 59 82 88 93 100 100 100 100 100 100 100
3 3 3 4 3 3 4 4 5 6 6 7 9 12 10 10 11 14 16 16 16 16 18 19 26 45 61 78 88 91 92 100 100 100 100 100 100 100
3 4 4 4 4 4 4 5 5 6 6 8 10 10 11 11 12 16 17 16 15 15 21 37 46 44 44 54 66 82 95 100 100 100 100 100 100 100
4 4 4 4 4 5 5 5 6 6 7 8 9 11 12 13 18 19 19 20 24 32 40 33 27 25 42 69 69 78 92 91 95 100 100 99 91 91
4 5 5 6 5 5 6 6 7 8 8 9 10 12 15 20 21 21 24 29 26 23 21 22 28 43 83 100 99 100 95 95 92 88 84 82 80 84
4 6 6 6 6 6 7 8 8 9 10 10 12 18 22 20 16 14 18 21 20 19 20 27 60 86 82 72 74 80 82 83 83 73 76 70 63 52
4 6 7 8 7 7 8 8 9 10 11 15 22 25 28 23 20 20 20 24 33 40 55 60 62 69 70 64 61 63 68 66 62 58 52 40 29 22
4 6 7 8 8 8 9 10 11 12 17 26 27 24 21 19 16 21 40 45 50 57 56 52 58 64 66 64 63 57 49 41 33 26 20 18 16 12
4 5 8 9 9 10 11 12 13 17 21 23 20 17 21 26 38 45 52 75 78 65 64 74 74 62 56 51 45 35 26 22 16 12 11 9 6 6

GFSNE_250_rhum_018.txt.gz
RH
52 53 49 42 34 29 26 26 20 14 16 20 18 20 19 20 22 26 26 27 33 35 35 37 39 40 42 37 37 33 35 37 41 41 41 50 65 72
43 41 39 31 27 23 22 20 19 14 9 13 15 15 20 19 22 21 21 20 24 27 30 34 36 38 42 46 43 44 46 45 54 58 53 65 69 70
34 32 27 24 24 26 24 22 20 19 13 14 10 9 9 11 11 13 12 14 18 23 23 27 27 27 30 36 39 46 54 46 56 61 59 69 78 73
34 26 24 22 22 21 20 20 15 8 7 7 9 9 9 9 8 9 10 10 11 15 16 17 19 23 25 32 36 42 51 53 54 59 71 80 76 76
29 22 15 14 15 14 12 8 7 7 7 6 7 7 9 9 8 8 8 9 10 10 13 14 17 20 24 22 28 37 43 48 54 60 93 82 68 74
15 14 13 8 7 8 7 6 6 5 5 5 4 5 6 8 7 6 6 6 7 8 9 10 12 14 16 22 28 28 30 38 46 53 62 69 63 82
10 9 7 7 6 5 4 4 4 4 4 4 4 4 5 6 5 5 5 5 5 6 7 9 10 13 16 20 22 24 34 35 37 41 46 56 72 96
7 8 6 5 4 3 3 3 3 3 4 4 4 5 5 5 5 5 4 5 5 5 6 11 11 16 21 23 24 26 27 29 27 28 35 46 69 87
5 4 3 3 3 3 3 3 4 4 3 4 5 6 6 6 6 6 6 6 7 7 5 8 9 17 18 23 23 21 23 21 22 28 41 51 67 80
3 2 2 3 3 3 3 4 4 4 3 3 4 5 5 6 7 7 8 9 10 9 7 9 7 8 8 9 8 10 14 20 28 38 41 50 61 77
2 3 3 3 2 2 2 2 3 3 3 3 4 4 5 6 6 7 9 11 12 10 8 9 8 7 8 9 10 12 14 22 26 30 36 44 54 81
3 3 2 2 2 2 2 2 3 3 3 3 4 4 5 6 6 6 8 9 11 11 10 11 11 11 11 10 10 13 15 16 19 26 36 44 55 80
2 2 2 2 2 2 3 3 3 3 3 3 3 4 5 6 5 6 7 8 11 12 10 14 13 11 11 11 13 16 16 18 22 26 31 44 57 82
2 2 3 3 2 3 3 4 4 4 3 3 3 4 4 5 6 7 8 11 11 11 12 13 11 12 14 15 16 17 21 21 24 30 39 52 77 97
3 2 2 2 2 2 3 4 4 4 4 4 3 4 6 6 6 8 11 13 14 14 16 16 17 18 19 20 21 21 26 30 38 52 70 80 93 100
2 2 1 2 2 3 4 5 5 4 4 4 5 6 6 6 8 10 10 11 12 16 18 19 19 21 21 20 21 24 32 42 60 67 88 93 97 100
2 2 2 2 3 4 5 5 5 5 6 6 6 6 7 8 9 10 12 12 15 17 18 18 17 19 21 28 44 59 71 77 79 76 78 86 91 93
2 2 2 2 4 5 6 6 6 6 7 7 8 8 8 10 11 12 14 18 19 18 17 16 18 26 47 63 62 63 57 68 77 83 89 96 98 98
3 2 2 3 5 6 7 6 7 8 9 10 10 11 11 12 13 18 22 22 25 34 43 54 61 60 46 34 33 44 64 77 89 92 93 97 99 98
4 3 3 4 6 7 8 8 9 10 11 12 13 13 14 17 21 22 25 26 28 30 32 29 24 20 22 31 44 53 68 70 67 70 79 90 95 98
4 3 4 5 7 9 9 10 11 12 13 14 16 19 20 21 23 17 19 21 20 20 18 20 28 37 42 48 55 64 70 77 82 89 90 91 94 86
5 4 5 6 9 10 11 12 14 15 16 20 21 20 22 23 22 21 18 16 17 22 29 37 44 54 59 69 78 74 64 62 62 59 57 53 49 48
5 5 5 8 12 12 13 15 15 16 19 21 22 22 20 21 20 19 19 24 26 33 40 48 51 52 51 45 40 38 39 37 33 33 32 29 25 22

GFSNE_250_rhum_021.txt.gz
RH
43 45 42 39 41 44 42 35 19 18 20 25 20 24 24 27 27 28 28 30 33 34 37 40 37 34 37 42 39 49 45 43 42 30 43 41 51 45
39 44 42 39 41 34 29 25 21 17 13 16 14 9 9 12 14 14 12 11 13 12 13 13 13 14 14 15 19 21 29 32 44 31 32 34 50 47
42 43 48 41 32 25 21 19 19 16 10 8 5 6 6 6 7 7 7 8 8 9 9 9 10 11 12 13 15 20 26 30 44 36 49 34 36 42
48 43 34 26 21 18 18 14 9 6 5 4 5 5 5 5 5 5 5 5 6 7 7 7 8 8 10 12 13 13 16 21 29 33 35 41 33 28
37 25 20 17 15 11 6 5 5 5 4 3 3 3 3 4 4 4 4 4 4 5 5 6 6 6 7 9 11 12 15 16 20 26 29 33 31 44
24 16 13 10 6 5 4 5 4 3 2 2 2 2 3 3 3 3 4 4 4 4 5 5 5 5 6 7 8 9 11 13 16 23 28 32 40 72
15 10 7 5 4 4 3 3 3 2 2 2 2 2 3 3 3 3 3 4 4 4 5 5 5 5 6 6 6 7 8 9 11 15 20 28 43 53
7 6 5 5 4 3 3 2 2 2 2 2 2 2 2 2 3 3 3 4 5 4 5 6 5 5 6 6 6 6 7 9 12 14 17 22 34 47
5 4 5 4 3 3 3 3 3 2 1 1 2 2 2 2 2 2 3 4 4 5 5 7 6 6 6 7 6 6 7 10 13 17 22 26 35 41
5 5 4 2 3 3 3 3 2 2 2 2 2 2 2 3 3 3 3 4 5 6 5 8 6 8 8 9 8 7 7 10 12 26 35 41 41 42
5 4 2 2 3 2 2 2 2 2 2 2 3 3 3 3 3 3 3 5 5 4 5 7 5 8 10 10 10 9 10 10 12 20 30 39 36 36
4 2 2 3 2 2 2 2 2 2 2 2 3 3 4 4 3 3 4 4 5 4 6 8 8 11 12 13 12 12 11 10 11 12 12 13 19 25
3 3 3 3 3 3 2 2 1 1 2 2 3 4 4 4 4 4 4 5 5 5 8 9 9 9 13 12 14 14 14 12 13 13 14 16 21 32
3 3 3 3 2 2 2 2 1 2 3 4 5 5 5 4 4 4 5 6 6 7 7 8 10 12 14 13 15 15 14 13 13 14 16 18 22 28
3 3 3 2 2 2 2 2 2 4 5 6 5 5 5 5 5 6 6 6 7 9 12 13 13 13 13 13 14 15 16 16 17 19 20 22 26 31
3 3 2 2 3 3 2 2 4 5 6 6 6 6 6 6 6 7 7 9 10 10 11 14 16 16 18 18 19 19 20 20 20 22 24 27 30 36
4 2 2 4 4 3 2 4 6 7 6 6 7 7 7 8 8 9 10 11 11 11 12 15 18 20 21 21 22 22 22 24 26 31 35 42 52 66
2 3 4 5 4 3 4 6 7 7 7 8 8 9 10 9 10 11 12 13 13 14 17 18 19 20 19 19 21 22 22 25 27 34 49 63 73 87
3 4 5 5 4 4 5 7 8 8 9 10 10 11 11 11 12 13 14 16 19 19 19 19 19 19 24 34 40 44 53 55 60 70 70 81 86 80
5 4 5 5 4 5 7 9 9 10 11 11 12 12 13 14 16 21 23 24 26 24 34 47 47 46 50 49 38 54 54 42 52 66 80 87 87 83
4 4 6 5 5 7 10 10 11 11 12 12 13 15 19 19 19 21 29 27 27 32 34 34 36 41 39 38 33 34 42 55 62 70 75 78 76 71
4 6 6 5 7 10 11 12 12 13 14 15 16 18 19 20 24 24 24 24 22 22 28 32 31 34 37 42 48 52 58 58 59 64 69 72 80 84
6 6 6 6 10 12 12 12 14 14 16 18 20 22 21 20 19 18 18 23 29 28 29 29 29 30 32 32 36 43 50 55 57 61 67 70 72 74

GFSNE_250_rhum_024.txt.gz
RH
48 51 44 42 36 42 42 40 35 27 27 37 31 29 18 16 15 13 11 11 13 12 12 13 11 11 12 14 14 16 21 38 57 66 74 99 100 100
53 46 36 36 38 41 39 38 29 21 17 20 16 12 9 6 6 6 6 6 6 6 6 7 7 7 8 8 9 10 12 17 26 49 64 66 100 100
47 37 36 34 33 33 33 33 25 22 14 11 5 5 4 4 4 4 4 4 4 4 4 3 4 4 5 6 7 8 9 10 14 20 22 35 82 62
37 34 31 33 33 30 26 25 22 13 6 4 4 4 4 4 3 2 2 2 2 2 2 3 2 3 3 4 5 6 7 8 11 13 15 18 39 26
35 36 36 34 29 29 29 21 10 5 4 3 3 2 2 3 2 2 2 3 3 3 3 3 2 2 3 3 4 4 5 7 8 10 12 15 20 31
39 35 36 36 28 22 14 7 4 4 4 2 2 2 2 3 2 2 2 3 3 3 3 2 2 3 3 3 4 4 5 6 7 8 10 12 16 20
40 42 37 23 14 7 5 4 4 4 2 2 2 2 3 2 2 2 1 2 2 2 2 2 2 2 3 4 4 4 5 5 6 8 10 12 18 20
44 28 15 9 6 4 4 5 4 2 2 2 2 2 2 2 2 2 2 2 2 2 2 2 2 2 3 4 4 5 5 6 7 8 11 13 16 20
22 12 7 5 4 4 5 5 3 3 2 2 2 2 2 1 1 2 2 2 2 2 2 2 2 3 3 4 5 5 6 6 7 8 8 10 11 16
10 6 5 4 4 4 4 4 4 3 2 2 1 2 1 1 1 2 2 2 2 2 2 3 2 3 4 5 5 6 7 8 8 8 9 9 9 11
7 5 4 4 4 3 3 4 3 3 2 2 2 2 2 2 2 2 3 3 3 3 3 3 3 4 5 5 6 7 9 10 11 10 9 9 9 11
6 4 4 4 3 4 4 4 3 2 2 2 2 2 3 3 4 4 4 4 4 4 5 4 4 5 6 6 7 8 11 12 13 12 10 11 15 19
5 4 4 4 4 4 3 3 2 3 3 2 2 3 4 4 4 4 4 4 4 4 4 4 5 5 6 6 7 9 11 13 13 12 11 11 12 17
5 4 4 4 4 3 2 2 3 4 3 3 4 5 5 5 5 5 5 5 5 5 5 6 6 6 6 7 8 10 12 15 15 13 13 12 12 16
5 4 4 4 4 2 2 4 4 3 3 5 6 5 5 6 6 6 6 6 6 6 6 6 6 6 7 10 12 14 14 16 16 14 14 13 12 12
5 4 4 4 3 3 4 4 4 3 5 6 6 6 7 7 7 7 7 8 8 8 8 9 10 11 12 13 13 12 12 14 14 15 16 15 15 15
4 4 3 3 3 4 4 4 4 4 7 7 7 8 8 8 9 9 9 10 11 11 10 10 10 11 13 14 15 16 17 18 17 16 15 16 15 16
3 3 3 4 4 3 5 4 4 7 8 8 9 10 10 10 10 10 10 11 12 12 12 12 13 15 17 19 20 21 20 20 21 22 22 22 25 25
3 4 4 4 3 5 5 4 7 9 10 10 11 12 12 12 12 12 12 13 14 15 17 17 18 19 20 20 20 21 23 23 23 24 28 29 30 32
4 4 3 4 5 5 5 8 9 11 11 12 13 13 14 14 16 16 17 20 26 30 26 23 24 21 21 20 20 22 26 30 28 26 27 33 40 43
4 3 4 6 6 6 9 11 12 12 12 13 15 17 19 19 16 21 23 22 22 26 29 36 48 55 47 47 42 45 58 54 57 62 68 72 70 64
3 4 6 6 7 10 13 14 13 14 14 16 19 22 24 24 27 28 29 29 30 29 28 30 39 38 40 39 33 30 29 37 39 38 39 40 56 69
4 7 7 7 11 14 15 14 14 14 14 17 19 21 22 21 22 24 23 24 26 28 29 32 34 35 34 38 40 40 38 36 30 34 42 44 52 62

GFSNE_250_rhum_027.txt.gz
RH
70 59 51 52 56 46 38 39 36 33 37 42 38 38 31 24 24 22 22 22 19 14 9 6 5 5 5 6 6 6 6 7 9 11 13 24 41 62
60 55 61 51 37 41 43 40 38 33 25 32 31 28 25 17 10 7 6 5 4 4 4 5 4 4 4 4 5 5 6 6 7 8 10 15 16 20
60 51 37 39 44 44 42 38 33 29 20 19 20 20 11 6 5 4 3 3 3 3 3 3 3 2 2 2 2 3 4 4 5 7 9 12 15 21
39 39 42 44 44 38 34 29 23 20 18 11 10 6 5 4 4 4 3 3 2 2 2 2 2 2 2 2 2 2 3 3 4 5 6 8 10 14
41 42 44 37 33 29 23 21 19 14 9 5 4 4 4 4 2 2 2 2 2 2 2 2 2 2 2 2 2 2 3 3 3 4 5 6 8 11
44 39 36 32 24 22 19 17 11 6 5 4 3 3 3 2 2 2 2 2 2 2 2 2 2 2 2 2 2 2 3 3 4 4 5 6 7 9
40 39 29 26 23 19 12 7 6 5 4 3 3 2 2 2 2 2 2 2 2 1 1 2 2 2 2 2 2 2 2 3 4 4 5 5 6 8
37 30 28 25 20 11 6 6 5 4 3 2 2 3 3 2 2 2 1 1 2 1 1 1 1 2 2 2 2 2 2 3 5 5 5 6 6 7
29 27 23 16 7 6 6 6 6 4 2 2 2 3 3 2 1 2 2 1 1 1 1 1 2 2 2 3 2 3 3 4 5 6 6 6 6 7
26 18 8 6 5 5 5 6 5 3 3 3 2 2 2 2 2 2 2 2 2 2 2 2 3 3 3 3 3 3 3 4 6 6 6 7 7 8
16 7 5 5 5 5 5 4 4 4 3 2 2 2 3 3 2 2 2 3 4 4 3 3 3 3 3 3 3 3 4 5 6 6 7 7 8 8
8 6 5 5 5 5 4 4 4 4 3 2 2 3 3 2 3 4 4 5 4 4 4 4 4 3 3 3 4 5 5 6 6 7 8 8 8 9
6 6 5 5 5 4 4 4 3 3 3 4 4 4 3 4 4 5 5 5 4 4 4 4 4 4 4 4 4 5 6 7 7 8 9 10 9 9
5 5 5 4 4 4 4 3 3 3 4 4 4 4 5 5 5 5 6 6 6 5 5 4 4 5 5 6 6 6 6 6 7 7 8 10 10 9
5 4 4 4 4 4 3 3 4 4 4 5 4 6 6 6 7 7 7 7 7 7 6 6 7 7 7 6 6 6 7 7 7 9 11 12 12 11
4 4 4 4 4 4 4 4 3 4 5 5 7 7 8 8 9 9 9 8 8 8 8 8 8 8 8 7 7 7 8 9 10 11 12 13 13 11
4 4 4 4 4 4 4 4 5 6 5 8 8 8 9 10 10 10 10 10 10 10 10 10 10 11 12 12 13 12 12 12 14 15 16 16 14 13
4 4 4 4 4 3 4 6 6 6 8 9 9 10 12 12 13 12 12 12 12 12 12 12 12 12 14 15 15 14 14 14 14 16 17 16 15 14
4 4 4 4 3 4 6 6 7 9 10 10 11 12 13 14 15 15 15 15 16 17 17 16 16 15 16 18 20 19 18 16 15 14 14 16 16 16
4 4 3 4 4 6 6 8 10 11 11 12 13 16 17 19 18 16 19 23 28 29 26 23 20 19 19 19 21 22 21 21 19 18 18 18 17 17
4 3 4 5 6 7 9 10 11 12 13 14 16 16 18 19 19 22 23 25 25 25 24 28 34 40 28 21 19 19 19 21 22 22 22 22 20 22
4 4 5 7 8 10 11 12 12 14 13 13 14 15 15 16 16 17 19 19 19 20 24 26 31 39 56 59 54 40 26 22 24 24 23 26 28 29
4 5 8 9 12 12 12 12 14 15 16 18 20 19 18 19 22 23 19 18 18 16 16 16 18 20 23 28 44 55 55 50 48 44 46 45 42 39

GFSNE_250_rhum_030.txt.gz
RH
68 88 93 86 72 60 51 48 36 25 28 37 37 41 36 30 26 25 26 26 25 17 11 9 7 6 5 5 5 4 4 5 5 6 8 10 18 29
84 82 78 64 59 57 51 30 26 27 26 36 34 32 28 25 24 20 13 8 6 4 4 4 3 3 3 3 3 3 3 3 4 4 4 5 6 8
78 68 66 61 59 40 29 28 29 29 25 24 25 25 22 13 8 5 4 3 3 3 3 2 2 2 2 3 3 3 3 3 3 4 4 5 5 6
64 66 62 48 31 25 26 29 29 25 22 17 15 10 7 6 5 4 4 4 3 3 2 2 2 2 2 2 2 2 2 2 2 3 3 4 4 5
61 51 36 26 25 28 28 26 21 16 12 7 6 5 5 4 4 4 4 3 2 2 2 2 2 2 2 2 2 2 2 2 2 2 3 3 4 4
42 30 28 28 27 24 18 14 11 8 7 6 5 5 4 5 4 3 3 2 2 2 2 2 2 2 2 2 2 2 2 2 1 2 3 3 4 4
30 30 29 26 20 15 13 9 6 6 5 4 4 4 4 4 2 2 2 2 2 2 2 1 1 2 1 1 1 1 1 1 2 2 2 3 4 4
28 28 23 17 16 9 7 6 5 5 4 4 4 3 3 2 2 2 2 2 2 1 2 2 2 1 1 1 1 1 1 1 2 2 2 3 4 4
24 20 18 12 6 5 5 5 5 4 3 3 3 2 3 2 2 2 2 2 3 2 2 1 2 2 2 2 1 1 1 1 2 2 2 3 4 4
21 18 9 6 5 5 5 5 4 4 4 3 3 3 2 2 2 2 2 2 2 2 2 2 3 3 3 3 2 2 2 2 2 2 2 3 4 4
18 8 6 6 5 5 4 4 4 3 3 3 3 3 3 3 3 3 2 2 3 4 4 4 4 4 4 4 3 3 3 3 3 3 3 3 3 4
8 7 6 5 4 4 4 4 3 3 3 3 3 3 3 3 3 3 3 4 4 4 4 5 5 5 4 4 4 4 3 3 3 3 3 3 4 5
7 6 5 5 4 4 4 3 3 3 3 3 3 3 3 3 3 4 5 5 5 5 5 5 5 5 4 4 4 4 3 3 3 3 3 4 4 5
5 4 4 4 4 4 4 3 3 3 4 3 3 4 4 4 5 6 7 6 6 6 6 6 6 5 5 5 4 5 5 4 4 4 4 5 5 6
4 4 4 4 4 3 3 3 3 3 3 3 4 4 5 6 7 8 8 8 7 8 8 7 7 7 7 7 7 6 6 7 6 6 7 6 6 6
4 4 4 4 4 3 3 3 3 3 4 4 5 6 8 9 9 9 10 9 9 9 10 9 9 8 7 7 8 8 8 9 9 8 8 8 8 8
4 4 4 4 3 3 3 3 4 5 5 7 8 10 11 10 10 11 11 11 11 10 10 10 10 10 11 12 10 9 9 8 10 10 9 9 10 11
4 4 4 3 3 3 3 4 5 6 8 10 11 11 11 12 13 14 13 12 12 12 12 12 12 11 11 13 14 14 14 13 11 12 13 14 15 15
4 4 3 3 3 3 5 6 7 9 10 12 12 12 13 15 16 15 16 17 16 18 18 16 15 14 14 15 17 16 15 15 16 17 18 19 19 17
4 3 3 4 4 5 6 8 10 10 11 12 12 13 15 16 18 19 20 22 21 27 22 20 18 19 21 21 22 20 19 18 16 16 18 20 20 19
3 4 4 4 6 7 9 11 12 12 13 13 13 13 14 14 15 16 19 21 23 22 24 22 23 23 20 20 22 23 22 21 21 19 16 18 18 18
4 4 5 6 8 10 11 12 13 13 14 17 19 20 21 21 21 20 20 18 19 22 23 26 26 33 32 23 22 21 23 24 24 23 24 20 17 18
5 6 7 9 11 13 14 16 16 17 18 20 19 18 17 16 16 18 20 22 23 22 18 17 18 24 25 35 33 34 30 27 25 25 25 24 24 20

GFSNE_250_rhum_036.txt.gz
RH
17 17 21 25 24 21 23 24 22 23 31 42 38 34 25 22 20 17 17 18 19 18 16 16 17 18 18 17 16 15 15 15 16 18 19 20 22 23
24 28 28 28 32 33 32 30 29 24 19 30 32 30 25 19 17 16 15 16 15 15 13 12 11 10 9 7 8 7 6 7 9 10 10 11 11 13
31 34 37 37 38 35 34 32 26 22 20 26 26 26 24 21 19 14 10 8 8 7 5 4 4 4 4 4 4 4 4 4 4 4 4 4 4 4
39 41 41 39 38 33 26 25 25 26 20 16 22 20 14 10 6 5 4 4 3 4 3 3 3 3 3 3 3 3 3 3 3 3 3 3 3 4
41 41 40 35 30 26 26 24 23 20 16 11 6 6 6 5 5 5 4 3 3 3 3 3 3 3 3 3 2 2 2 2 3 3 3 2 3 3
42 39 32 28 27 25 22 21 17 13 7 5 5 5 4 4 3 3 3 3 3 2 2 2 2 2 2 2 2 2 2 2 2 2 2 2 2 2
41 35 31 28 22 22 18 11 6 5 5 4 4 4 4 3 3 3 3 3 2 2 3 2 2 2 2 2 2 2 2 2 2 2 2 2 2 2
38 35 26 22 24 18 8 6 5 4 3 3 3 3 3 3 3 3 3 2 2 2 2 2 2 2 2 2 2 2 2 2 2 2 2 2 2 1
34 26 22 21 9 6 6 5 4 3 3 3 3 3 3 3 3 2 2 2 2 2 2 2 2 2 2 2 2 2 2 2 2 2 2 2 2 2
28 21 14 6 6 5 4 4 3 3 3 3 3 3 3 3 2 2 2 2 2 3 2 3 3 2 3 3 3 3 3 2 2 2 2 2 2 1
23 10 6 6 5 4 4 4 4 3 3 3 3 3 2 2 2 2 2 3 3 4 4 4 4 3 4 4 4 4 3 3 3 3 3 2 2 2
11 6 6 6 4 4 4 4 3 3 3 3 3 2 3 3 3 4 4 4 4 4 6 6 6 5 5 5 4 4 4 3 3 3 3 3 2 2
7 6 6 4 4 4 4 4 4 3 3 2 3 3 3 4 4 5 6 6 6 6 7 7 7 6 5 6 5 4 4 4 4 4 3 3 3 2
7 6 5 5 4 4 4 3 3 3 3 3 3 4 4 5 7 8 8 9 9 8 8 8 7 7 6 6 6 5 4 4 4 4 4 3 3 2
6 5 5 5 4 4 4 3 3 3 4 4 5 6 7 8 9 10 9 10 9 8 9 9 8 8 8 8 7 6 5 4 4 3 3 3 3 3
6 6 5 5 4 4 3 3 4 4 5 6 8 9 9 10 10 10 10 11 12 10 10 10 10 9 9 9 8 7 6 4 4 4 3 3 3 3
6 5 5 4 4 4 4 4 5 6 8 8 10 10 11 12 12 11 11 13 13 12 13 13 12 11 10 10 10 7 7 6 5 5 4 4 4 4
5 5 5 4 4 4 5 6 8 9 10 11 12 12 13 14 14 13 13 13 14 17 18 18 17 14 12 12 13 10 8 8 7 6 6 5 5 5
6 5 4 4 5 5 6 8 9 11 14 16 18 20 20 20 20 21 19 15 13 15 20 21 19 18 16 13 15 15 11 9 9 8 7 7 8 8
5 5 5 5 6 6 8 10 13 16 17 19 22 23 22 19 19 19 20 20 18 13 16 22 21 21 20 18 17 17 17 12 10 9 9 9 8 9
5 5 5 6 7 9 11 15 16 17 19 22 22 20 20 20 19 16 14 15 16 17 15 16 21 25 21 21 21 18 18 19 14 12 10 11 10 9
5 6 6 7 9 12 16 16 16 17 18 18 16 15 15 17 14 10 12 12 13 13 17 15 19 26 28 22 22 21 18 18 20 18 16 14 12 11
6 7 8 9 14 16 16 18 19 17 14 13 13 15 15 15 11 8 8 9 9 10 14 19 15 22 35 24 23 24 20 19 19 20 20 19 18 16

GFSNE_250_rhum_039.txt.gz
RH
19 17 15 16 17 20 22 22 19 24 34 40 32 31 25 22 21 20 18 17 16 16 16 15 14 13 13 12 12 13 13 14 15 15 16 17 18 19
18 18 21 24 29 30 30 32 31 25 19 25 25 21 19 17 16 13 12 13 12 11 11 10 8 7 8 8 8 9 10 10 10 10 11 12 13 14
21 24 28 31 34 35 37 32 24 20 14 18 22 23 20 13 10 8 6 4 4 4 4 4 4 4 4 4 5 4 4 4 4 4 4 4 5 6
26 31 35 36 41 35 27 25 23 20 18 15 15 11 10 6 4 4 3 3 3 3 3 3 3 3 3 3 3 3 3 3 2 3 3 3 3 3
32 39 41 36 32 32 33 27 21 22 18 8 6 5 5 4 4 3 2 2 2 2 2 3 2 2 2 2 2 3 3 3 3 3 3 3 3 3
41 39 36 42 40 34 25 22 21 12 5 5 5 4 3 3 3 3 3 2 2 2 2 2 2 2 2 2 2 2 2 2 2 2 2 2 2 2
39 51 56 46 35 25 20 18 7 5 4 4 4 3 2 3 3 2 3 3 2 3 2 2 3 2 2 2 2 2 2 2 2 2 2 2 2 2
64 61 46 36 25 22 14 7 6 4 3 3 3 3 3 3 2 3 3 3 3 3 2 2 2 2 2 2 2 2 2 2 2 2 2 2 2 2
55 45 36 26 20 10 8 7 5 3 3 3 4 3 3 3 3 3 2 2 2 2 2 2 2 2 2 2 2 2 2 2 2 2 2 2 2 2
51 36 26 18 10 7 6 6 4 4 4 4 3 3 3 2 2 2 2 2 2 2 2 2 2 2 3 4 3 3 3 3 3 2 2 2 2 2
40 28 15 9 7 7 6 5 4 4 4 3 3 2 2 2 2 2 2 3 3 4 4 4 4 3 4 4 4 4 4 3 3 3 3 3 3 2
29 14 9 8 7 6 5 5 4 4 3 3 3 3 3 3 3 4 4 5 5 4 5 6 6 6 4 6 5 4 4 4 4 4 4 3 3 3
14 9 8 8 6 5 5 4 4 3 3 3 3 3 4 4 5 6 7 8 7 8 9 8 7 7 6 6 6 6 5 5 5 4 4 3 3 3
10 8 8 6 6 6 5 4 4 3 4 4 4 4 5 6 8 8 9 10 10 11 10 10 8 7 8 8 7 7 6 6 5 4 4 3 3 3
9 8 6 6 6 5 4 4 4 4 5 5 6 7 8 9 10 10 10 11 12 12 12 12 12 11 9 8 9 9 7 7 6 5 4 4 3 3
8 6 6 6 5 4 4 4 5 5 6 8 9 10 11 12 11 11 11 10 11 14 13 12 15 13 11 10 9 9 7 7 6 5 4 4 3 3
6 6 6 5 5 4 4 5 6 7 9 10 12 12 14 15 16 15 15 15 14 13 13 14 18 17 13 11 10 11 7 7 7 6 4 4 4 3
6 7 6 5 4 4 6 7 8 9 12 12 14 15 16 16 17 20 19 16 16 18 14 15 18 20 16 12 12 13 8 9 8 7 4 4 4 4
7 6 5 4 5 6 7 8 10 13 14 14 14 15 16 19 18 18 19 19 14 16 18 14 17 20 18 15 13 14 10 10 9 8 6 4 4 4
6 5 5 5 6 7 9 11 14 16 17 16 14 14 16 18 15 15 16 17 15 16 16 17 16 20 21 19 16 16 13 11 10 10 8 5 4 5
6 5 5 6 8 9 11 14 16 18 15 12 11 11 11 11 11 13 14 16 13 12 16 16 18 17 23 20 20 19 17 13 11 12 10 8 6 6
5 6 6 8 9 12 14 13 14 13 11 10 9 10 11 11 12 10 9 9 10 10 12 13 20 17 27 21 23 22 17 18 14 13 12 10 8 8
6 6 8 9 12 15 16 15 12 10 9 9 10 11 12 11 9 7 6 7 8 8 9 10 21 18 26 22 24 24 19 19 19 16 13 13 11 10

GFSNE_250_rhum_042.txt.gz
RH
30 26 23 22 21 20 16 17 18 22 38 39 35 32 22 20 21 20 20 18 14 14 14 12 10 8 8 8 9 10 11 12 14 15 17 17 16 16
26 24 22 23 22 18 21 25 34 31 26 30 28 21 18 18 15 11 8 6 5 4 3 3 4 4 4 4 4 4 4 5 7 9 11 13 15 17
26 23 25 22 21 23 31 41 35 25 18 23 23 27 26 16 8 5 3 3 3 3 2 3 3 3 3 3 3 3 3 3 3 4 4 4 6 7
25 27 22 22 25 36 41 32 28 27 18 14 20 22 13 7 5 4 3 2 2 2 2 2 2 2 2 2 2 2 2 2 2 2 2 3 4 4
26 22 26 26 39 37 30 32 29 25 20 16 15 9 7 5 4 3 3 2 2 3 2 2 2 2 2 2 2 2 2 3 3 2 2 2 2 2
23 26 29 40 34 36 36 32 26 22 18 13 7 6 5 4 3 3 3 2 2 3 2 2 2 2 2 2 2 2 2 2 2 2 2 2 2 2
27 32 39 38 43 38 31 25 24 17 9 7 6 5 4 4 3 3 3 3 2 2 2 2 2 2 2 2 2 2 2 2 2 2 2 2 2 2
37 38 48 43 37 35 30 28 17 6 6 6 5 4 4 3 3 3 3 2 2 2 2 2 2 2 2 2 2 2 2 2 2 2 2 2 2 2
42 48 42 41 37 31 29 20 8 7 6 5 5 4 4 3 3 2 2 3 3 3 2 2 2 2 3 3 3 3 2 2 2 2 2 2 2 2
47 46 46 39 30 25 17 9 7 6 5 5 4 4 3 3 3 3 3 3 4 4 4 3 4 2 4 4 3 4 4 3 3 3 3 2 2 2
58 53 38 30 27 17 8 7 6 5 5 5 4 4 3 3 4 4 3 3 4 5 6 7 6 4 6 6 5 5 4 4 5 4 4 4 3 3
50 37 29 25 15 8 7 6 5 6 5 4 4 4 4 4 5 5 6 6 6 6 7 7 8 9 6 7 6 6 6 5 5 5 4 4 4 3
37 28 25 12 8 7 6 5 6 5 4 4 4 4 4 5 6 7 8 9 9 8 10 9 8 9 8 7 8 7 6 6 6 5 4 4 4 3
29 22 12 8 7 6 6 6 5 4 4 4 4 5 5 6 7 9 10 11 13 12 11 10 10 10 9 10 10 8 8 8 7 6 5 4 3 3
24 11 8 6 5 6 6 5 4 4 5 5 5 7 7 9 9 10 13 14 17 17 15 14 11 12 13 15 10 9 9 9 7 6 4 4 3 3
12 9 6 5 6 6 5 4 4 5 6 6 6 8 10 11 13 12 12 12 12 19 18 16 12 13 17 17 12 12 12 10 7 6 5 4 3 3
8 6 5 6 6 5 4 5 6 7 7 10 12 11 11 11 12 13 13 14 15 15 19 17 14 14 18 17 14 14 14 9 8 6 5 4 4 3
6 5 6 6 5 4 5 6 6 8 11 12 12 12 12 10 10 11 12 14 13 16 18 16 16 14 18 19 16 16 13 10 9 6 6 5 4 4
5 7 6 5 4 5 6 7 8 13 14 14 13 10 8 8 8 8 9 12 15 16 21 15 16 14 19 19 17 18 12 11 9 8 8 5 4 4
7 7 5 4 5 7 7 8 12 13 13 12 10 8 7 6 8 9 11 13 11 13 18 16 16 15 20 20 21 19 14 12 10 10 9 6 5 4
7 6 4 5 7 7 10 13 14 12 10 9 7 7 6 7 9 8 8 8 9 10 12 13 14 15 20 20 22 20 16 13 11 11 10 8 6 6
6 5 6 7 7 10 14 14 12 10 9 8 7 7 7 8 8 8 7 7 8 8 9 11 13 15 22 20 25 21 18 14 13 12 12 9 8 7
5 6 8 7 11 14 14 11 10 8 8 7 7 8 8 8 7 7 6 6 7 7 9 9 12 14 24 20 26 21 20 15 14 13 12 10 10 8

GFSNE_250_rhum_045.txt.gz
RH
46 46 44 38 32 28 24 21 20 21 21 17 18 20 30 34 31 25 25 23 22 18 16 13 9 6 5 4 4 4 4 4 4 5 6 7 8 9
47 47 42 34 29 24 22 23 22 17 14 24 33 32 27 22 18 18 15 12 10 7 5 4 4 4 3 3 3 2 2 2 3 3 3 3 4 6
50 45 35 29 25 23 23 20 16 17 24 37 36 33 25 20 20 13 8 5 5 4 4 3 2 2 2 2 2 2 2 2 2 2 2 2 3 3
44 35 32 27 25 23 19 16 23 31 29 28 31 27 27 22 13 8 6 4 4 3 3 2 2 3 2 2 2 2 2 2 2 2 2 2 2 2
42 35 30 27 22 18 19 27 34 35 28 23 27 31 23 12 7 6 4 4 3 3 3 2 3 2 2 2 2 2 2 2 2 2 2 2 2 2
36 32 25 20 18 23 29 36 39 32 27 26 27 20 11 6 6 5 4 4 3 3 2 2 2 2 2 2 2 2 2 2 2 2 2 2 2 2
30 23 20 21 25 34 36 36 28 26 26 25 17 7 6 6 5 4 4 3 3 3 2 2 2 2 2 2 2 2 2 2 2 2 2 2 2 2
23 22 25 32 35 41 38 31 30 24 22 11 7 6 5 4 4 4 4 3 2 3 3 2 3 2 3 3 2 2 2 2 2 2 2 2 2 2
25 34 39 33 40 39 33 32 28 20 9 7 6 5 5 5 4 4 3 3 4 5 4 2 4 3 5 5 5 5 4 3 3 3 2 2 2 2
44 35 34 40 39 32 31 29 23 10 7 6 5 5 5 4 4 3 4 3 3 5 8 6 6 6 6 6 6 6 5 4 5 4 3 3 2 2
34 36 40 43 34 28 26 20 9 7 5 5 5 5 4 4 4 5 4 4 4 4 8 8 10 8 8 8 7 8 8 6 5 5 5 4 4 3
38 42 42 34 29 26 18 9 7 5 5 5 5 4 4 4 5 6 7 6 7 6 9 8 10 10 7 9 9 9 7 7 6 6 5 5 4 4
46 46 38 30 25 18 9 7 5 5 6 5 4 4 4 5 5 7 11 12 12 11 13 12 10 10 12 9 7 8 10 7 7 6 5 5 4 4
51 38 30 24 16 9 7 5 6 6 5 4 4 5 5 6 9 10 12 13 15 16 11 15 15 14 13 10 10 9 13 9 7 6 5 5 4 4
45 33 23 13 8 6 5 6 6 4 4 4 5 5 6 8 9 8 10 12 12 17 17 19 18 16 16 13 12 14 10 9 8 7 5 5 4 3
37 23 14 8 6 5 6 6 5 5 6 6 6 8 9 8 9 9 7 8 9 14 20 18 18 15 16 14 16 16 12 9 9 7 5 5 4 3
18 13 8 5 4 6 6 5 5 6 6 7 11 11 10 8 8 8 7 6 7 8 14 18 16 15 15 12 17 15 12 12 8 7 6 4 3 3
12 7 4 5 6 6 4 4 6 6 9 10 10 11 9 8 6 6 6 8 8 10 11 13 14 13 14 13 17 14 14 10 8 7 5 3 3 3
7 4 5 7 6 4 5 6 6 9 9 10 9 8 7 6 6 6 6 9 11 11 12 13 13 12 14 15 18 16 13 11 8 7 5 4 4 3
5 5 7 6 5 6 7 7 10 10 9 9 7 6 6 6 6 7 8 9 9 9 9 9 12 11 14 18 19 17 14 11 9 7 6 5 4 3
5 7 7 5 6 7 8 12 12 10 9 7 6 6 6 5 6 7 8 8 8 7 7 8 10 11 13 18 19 18 14 12 10 8 6 5 4 3
8 7 5 6 7 9 12 11 10 9 7 6 6 6 6 5 6 7 6 7 7 6 7 8 10 12 15 20 20 18 15 12 10 9 8 7 5 4
8 6 6 7 8 13 10 9 9 7 6 7 6 6 5 6 8 6 6 6 6 6 7 8 9 13 20 21 20 19 16 12 11 10 9 8 6 5

GFSNE_250_rhum_048.txt.gz
RH
54 48 51 51 48 50 51 52 48 43 42 33 25 23 20 16 16 17 17 28 29 28 26 25 25 19 13 7 5 5 5 5 5 5 4 4 4 4
56 55 48 48 50 53 53 49 46 35 33 29 21 15 13 17 16 23 26 24 24 21 18 15 9 5 4 5 4 4 4 4 4 3 4 4 4 4
53 50 50 54 56 54 50 48 40 33 22 20 19 22 22 22 22 21 19 17 17 13 8 5 5 4 4 4 3 3 3 3 2 2 2 3 2 2
53 55 55 60 56 53 46 41 30 21 17 21 39 38 27 24 23 22 20 15 8 6 5 4 4 4 3 4 4 3 3 3 3 2 2 2 2 2
60 62 65 57 53 44 37 27 19 22 28 36 31 27 30 25 24 20 11 6 5 4 4 4 4 4 3 3 3 3 3 2 2 2 2 2 2 2
71 64 54 47 41 30 24 23 26 41 35 23 22 25 25 23 14 8 6 4 4 4 4 4 3 3 3 3 3 2 2 2 2 2 2 2 2 2
56 48 44 38 27 23 25 34 46 32 21 21 22 23 20 13 8 5 4 4 4 4 4 3 3 3 3 3 3 3 3 3 2 2 2 2 2 2
48 43 35 26 28 29 47 46 29 21 20 20 24 18 11 6 5 4 4 4 4 3 4 3 3 3 4 5 4 4 4 4 3 3 2 2 2 2
40 30 30 29 42 52 38 30 26 20 22 23 18 10 6 4 4 5 5 4 3 4 5 3 4 5 5 6 6 6 5 5 5 4 4 4 3 2
34 30 32 50 44 34 33 30 23 24 25 16 8 5 4 4 5 5 4 4 3 4 6 5 6 6 5 8 8 8 7 7 6 5 4 5 4 4
31 44 52 50 41 37 29 23 26 24 15 7 5 4 5 6 4 4 5 5 5 4 7 8 10 11 6 11 12 10 9 9 8 7 6 6 6 5
53 55 53 44 37 28 24 26 25 14 7 4 4 5 5 4 5 6 7 7 9 9 9 10 10 13 7 11 14 12 11 10 9 9 7 6 6 6
58 56 48 38 29 27 27 24 12 7 4 4 6 5 4 4 5 6 7 12 13 13 15 13 9 10 12 8 12 12 14 11 9 9 9 8 6 6
58 48 39 31 29 28 21 11 7 4 5 6 4 4 5 5 5 6 9 9 11 14 12 11 10 11 11 14 16 6 9 11 11 11 8 7 6 6
56 48 36 30 26 16 10 7 4 5 6 4 4 5 5 6 9 8 6 6 6 9 9 8 9 10 12 14 16 10 10 9 12 9 8 7 6 6
54 41 30 25 15 10 6 4 6 6 5 5 6 6 8 8 8 7 6 6 6 6 11 7 7 9 11 14 13 10 12 11 11 11 9 7 6 5
41 29 22 14 9 5 4 6 6 4 5 6 7 9 8 7 7 6 6 6 6 6 10 9 7 9 12 13 12 12 13 15 12 10 8 7 5 4
26 16 13 9 5 4 6 6 4 5 6 8 9 7 7 7 6 5 5 6 6 9 10 10 10 12 13 13 11 13 15 13 13 9 8 6 4 4
14 12 8 5 4 7 6 5 6 6 9 8 7 6 6 5 6 6 6 6 8 9 10 10 11 10 12 10 12 14 16 15 10 8 6 5 4 4
13 6 5 4 7 6 6 6 7 10 8 7 6 6 5 5 5 6 5 6 8 8 8 8 8 9 10 11 13 17 15 12 10 8 6 5 4 3
7 5 5 7 6 6 6 8 10 8 7 6 6 5 5 5 5 5 6 8 7 7 7 6 7 8 10 12 17 16 14 11 10 6 6 5 3 3
5 5 8 6 6 7 9 10 8 7 6 6 6 6 6 6 6 7 8 6 6 6 6 7 7 9 11 15 18 16 12 12 9 7 7 5 4 3
5 8 7 6 8 9 10 8 7 6 6 5 6 6 6 6 7 6 5 5 5 5 6 7 8 10 14 19 18 14 13 12 8 9 7 5 5 4

GFSNE_250_rhum_051.txt.gz
RH
93 78 66 53 54 53 51 51 51 53 53 56 58 58 56 55 43 32 25 16 15 14 18 26 24 20 21 20 20 20 17 14 10 7 6 6 5 5
80 70 65 60 59 58 60 67 68 62 63 63 58 52 39 32 24 15 14 16 17 26 22 19 19 19 20 16 10 6 5 4 4 4 4 4 4 4
76 76 74 72 71 78 79 74 71 70 63 59 47 35 24 16 15 16 17 24 20 19 18 18 18 12 7 5 5 4 4 4 3 3 3 4 3 3
80 82 87 84 81 76 74 74 67 56 46 36 30 22 19 18 20 23 20 20 19 18 17 10 7 5 4 4 4 4 4 4 3 3 3 3 3 3
84 83 78 79 77 76 68 54 46 39 33 24 23 21 24 28 22 20 19 19 17 10 7 5 4 3 3 4 4 4 3 3 3 3 3 2 2 2
78 79 78 76 66 54 46 43 38 28 24 21 21 31 28 20 19 19 20 17 9 5 4 3 4 4 4 4 3 3 3 3 3 3 3 3 2 2
80 75 68 58 48 47 44 33 29 27 25 27 33 22 19 20 21 19 13 8 4 3 4 4 4 4 3 3 4 4 3 3 3 3 3 3 2 2
71 63 54 48 46 39 32 30 31 36 34 28 18 17 23 22 18 10 5 4 3 3 5 3 3 3 4 4 4 5 5 5 5 4 4 4 3 3
57 52 51 44 34 32 32 34 44 38 21 17 21 22 20 16 8 5 3 4 4 4 3 4 3 4 5 5 8 7 6 6 7 6 6 5 6 5
59 59 40 36 36 32 35 48 42 27 21 20 22 18 10 6 4 4 5 6 3 3 4 6 4 4 4 6 11 12 11 9 10 8 7 8 8 7
59 37 41 36 37 46 51 41 26 19 22 22 17 8 5 3 4 6 5 4 5 4 4 6 5 9 6 7 11 13 11 11 11 8 9 8 7 7
45 41 36 42 48 53 39 24 19 24 23 15 7 4 3 5 5 4 5 6 6 7 6 9 7 10 8 6 8 11 9 12 10 9 11 10 9 7
38 38 51 60 53 38 24 21 26 22 11 7 4 3 5 5 4 5 5 6 10 11 10 10 7 7 8 8 5 9 9 12 11 12 11 11 9 8
44 62 64 52 36 28 26 26 18 10 6 4 4 5 5 4 5 5 6 8 8 10 8 7 7 7 6 6 5 6 9 12 12 11 12 10 12 11
70 66 54 40 34 27 24 13 9 6 4 5 6 4 5 5 6 7 6 7 6 7 7 6 5 5 6 5 5 6 6 10 11 12 11 13 10 8
70 58 43 36 27 20 11 9 5 4 5 6 5 5 5 6 7 7 6 6 5 5 7 5 4 5 5 6 6 7 8 8 10 10 12 11 9 8
53 42 33 23 14 11 8 5 4 6 6 5 6 6 7 6 6 6 5 5 5 4 6 7 5 6 7 8 8 10 12 10 10 12 12 10 8 7
40 29 16 13 11 7 5 4 6 6 5 6 7 6 5 5 5 4 4 5 5 5 6 6 7 8 8 9 10 11 10 11 15 15 11 9 8 6
23 13 13 11 7 5 4 6 6 5 6 7 7 6 5 4 4 4 5 5 5 5 7 7 7 8 8 8 10 11 12 15 16 12 11 8 6 4
14 12 10 6 5 5 6 6 6 7 7 7 6 5 5 5 4 5 5 6 5 6 7 7 7 7 7 8 10 12 16 16 13 12 9 6 5 4
11 9 6 5 5 7 6 6 8 8 7 6 5 5 5 5 5 6 6 6 6 6 5 6 6 7 8 9 12 17 16 13 12 9 7 5 4 4
8 6 5 6 8 6 6 8 9 7 6 5 5 5 5 5 5 5 5 4 4 5 5 6 6 8 8 12 18 18 14 13 10 8 6 5 4 5
6 5 6 8 6 7 10 10 7 6 6 5 5 5 4 4 4 4 4 4 5 5 6 6 8 9 12 19 19 14 14 12 9 7 6 5 5 5

GFSNE_250_rhum_054.txt.gz
RH
84 98 95 80 75 65 72 67 70 68 77 81 81 79 79 77 74 68 59 49 39 30 24 17 15 17 26 27 20 18 17 17 17 18 18 17 16 15
100 98 90 90 87 81 86 74 64 53 61 70 65 65 69 69 57 43 37 32 24 15 14 16 24 21 18 17 16 16 16 14 12 8 6 6 5 5
100 99 94 91 83 86 75 69 63 58 55 63 61 58 54 45 34 26 20 14 14 18 26 21 18 18 17 16 15 11 7 5 4 4 3 3 3 3
100 95 92 85 80 73 74 67 63 60 53 55 52 48 35 28 20 14 14 15 26 23 17 16 17 16 13 8 5 4 4 3 3 3 3 4 3 3
93 95 85 75 73 74 70 67 60 54 49 43 37 31 21 13 14 15 24 27 19 16 16 15 14 8 5 4 3 3 3 4 4 3 3 3 3 3
93 89 79 79 80 78 70 58 53 48 44 36 27 16 15 15 21 26 27 22 20 16 13 8 5 4 3 3 4 4 4 3 3 3 2 3 3 2
94 85 82 79 74 64 56 53 52 42 35 24 20 17 20 24 25 25 22 22 16 8 6 4 3 3 4 4 4 3 3 3 3 3 3 4 4 4
94 85 76 68 62 54 55 46 42 27 20 20 19 25 25 27 25 24 18 13 8 4 3 3 4 4 3 3 4 5 5 4 4 3 3 4 4 4
84 75 74 66 58 55 52 41 30 28 22 23 23 27 31 26 20 13 8 6 4 3 4 5 3 2 3 3 5 8 7 6 4 5 6 7 7 6
81 75 65 63 60 49 32 35 33 30 31 31 32 27 21 14 8 7 6 4 4 4 3 5 4 3 3 3 7 10 12 10 9 8 7 8 8 8
82 71 64 56 40 34 38 32 34 38 34 29 25 18 10 7 6 4 3 5 5 4 3 5 4 5 5 4 6 8 9 9 10 9 9 8 8 10
75 68 50 39 39 33 32 39 42 34 27 25 15 7 6 6 3 4 5 4 4 5 4 6 6 6 6 4 6 8 7 7 7 7 7 7 9 10
64 47 46 40 33 38 45 41 30 25 25 12 8 8 5 3 4 4 3 4 5 7 8 7 6 5 6 6 3 6 6 6 6 5 6 8 8 12
53 48 37 38 46 48 40 31 24 19 11 9 7 4 3 5 4 4 4 5 5 6 6 5 4 4 4 4 4 4 5 6 6 6 6 9 10 11
44 40 50 50 47 37 30 22 14 10 8 6 4 4 5 4 4 5 5 5 4 4 5 4 3 4 4 5 4 5 6 8 7 7 8 10 11 10
52 59 53 47 36 28 19 13 10 7 5 4 5 5 4 4 5 5 5 4 4 3 5 4 3 4 4 4 6 8 8 10 11 10 10 11 10 11
57 54 47 37 26 16 11 9 6 4 4 5 4 4 5 6 5 4 4 4 4 4 4 6 4 4 5 6 8 9 9 9 10 11 12 14 14 10
51 43 31 20 13 11 8 5 4 4 6 4 5 6 6 4 4 3 4 5 5 5 5 5 4 5 7 8 8 8 9 9 10 12 12 9 8 7
36 27 16 11 10 8 5 4 5 6 5 5 7 5 4 4 3 4 4 4 5 5 6 5 7 7 7 7 7 8 9 11 13 12 10 8 6 5
24 13 10 9 7 5 4 6 6 5 6 7 6 5 4 4 4 4 4 4 5 5 6 6 6 6 7 7 8 10 14 14 12 10 9 7 5 4
12 10 9 7 5 5 7 6 6 8 8 6 5 5 4 4 4 4 4 4 4 5 5 5 6 6 7 9 13 16 14 11 10 9 7 6 5 4
10 8 7 5 5 8 7 7 9 8 6 6 5 5 5 5 4 3 4 4 5 5 5 5 6 8 11 16 16 13 12 10 8 7 6 5 4 4
8 7 6 6 8 7 8 10 8 7 6 6 5 6 5 4 4 5 5 5 5 5 6 8 10 15 17 15 13 12 10 9 8 7 6 4 4 4

GFSNE_250_rhum_057.txt.gz
RH
37 48 66 80 80 80 67 64 78 95 97 93 91 87 83 80 72 63 52 45 46 38 29 27 26 25 23 16 16 17 17 20 25 23 20 17 16 14
43 50 70 87 88 81 67 70 79 78 81 92 87 82 76 78 68 59 55 49 39 33 27 26 20 16 18 18 25 24 21 18 14 13 12 11 10 10
52 63 75 93 87 73 71 75 84 85 85 82 71 66 59 57 51 47 38 37 30 26 21 15 16 22 27 24 20 16 12 11 11 10 9 8 6 5
62 78 88 85 79 79 77 91 91 85 77 69 63 61 58 49 42 40 32 28 21 14 16 24 27 24 20 14 13 10 10 7 5 4 3 3 3 3
69 83 85 86 82 99 87 91 88 82 67 57 56 50 45 44 36 29 24 16 16 23 27 21 19 14 11 9 7 5 4 3 2 2 2 3 3 3
83 93 91 95 94 89 87 90 85 70 61 56 48 48 44 34 28 19 20 24 29 23 18 13 10 7 5 4 4 3 3 3 4 3 3 3 3 3
92 92 91 86 78 84 85 79 73 68 56 50 49 36 32 22 20 24 27 28 23 14 10 7 5 4 3 2 2 4 5 5 4 3 3 3 3 3
91 85 75 84 87 81 78 72 61 56 53 39 36 26 22 24 28 27 25 22 14 6 5 6 4 3 2 3 4 4 4 5 5 4 3 3 4 4
88 87 97 84 84 79 69 76 70 53 39 33 25 26 30 29 26 20 12 8 6 6 5 4 2 3 3 3 3 4 5 6 6 5 4 4 5 5
90 86 84 88 77 82 78 68 55 44 36 31 32 29 23 21 14 9 7 7 6 4 3 4 4 4 3 2 3 5 7 9 9 9 7 6 6 7
84 92 80 79 85 75 64 51 41 35 36 36 28 23 18 10 7 7 6 4 3 3 4 4 3 4 4 3 4 6 7 8 8 7 7 7 6 6
88 87 91 86 71 49 42 37 39 42 42 31 24 15 8 6 6 4 3 3 4 4 3 5 4 4 5 4 4 5 6 7 6 5 6 6 6 6
99 93 79 63 49 46 44 44 44 42 31 23 14 8 7 6 3 3 3 4 3 4 4 6 5 4 4 4 3 4 6 4 4 4 4 5 6 7
88 72 58 51 53 49 47 47 37 26 20 13 8 7 5 3 3 4 3 3 4 4 5 4 4 3 4 4 4 4 5 5 5 5 5 5 6 6
67 58 57 54 47 48 42 35 23 16 9 8 7 4 3 4 4 3 4 4 4 3 4 4 4 3 4 4 4 5 5 6 5 6 6 6 6 6
60 52 52 48 46 42 32 21 14 9 8 6 4 4 5 4 4 4 4 4 4 3 4 5 4 5 5 5 5 5 6 6 6 7 8 7 6 6
60 54 47 41 36 23 16 12 9 8 5 4 5 4 5 5 4 3 4 4 4 4 4 5 5 5 5 5 6 6 7 8 7 6 7 9 8 8
49 43 35 30 19 14 9 8 7 4 5 5 5 5 5 4 4 4 4 4 4 4 4 5 6 6 7 7 7 7 6 7 8 9 9 11 11 10
37 32 24 15 11 8 8 6 4 5 6 6 6 5 5 5 4 4 4 3 3 4 4 4 5 6 6 6 6 6 7 8 10 13 12 10 10 9
26 19 12 9 8 7 5 4 6 6 6 7 6 6 5 6 5 4 3 3 3 4 4 4 5 6 6 6 6 8 10 12 11 9 9 7 6 5
18 11 8 7 6 5 5 7 7 8 8 7 7 6 7 5 4 4 4 4 4 4 5 5 6 6 7 8 12 13 12 11 9 7 6 5 5 4
8 7 6 5 5 6 7 7 8 9 8 8 7 8 6 5 5 5 5 5 5 6 6 7 8 11 14 15 12 11 10 8 7 7 6 6 6 5
7 6 6 6 8 7 7 9 10 9 9 8 9 8 7 7 7 6 7 7 8 9 12 15 16 14 13 12 11 9 8 8 7 7 7 6 5 4

GFSNE_250_rhum_060.txt.gz
RH
50 47 49 50 59 61 49 45 38 50 80 96 93 96 92 78 72 70 72 74 73 66 59 50 38 34 37 32 26 26 24 22 19 15 13 13 13 14
65 56 55 55 52 60 53 48 45 58 91 98 98 93 96 92 98 89 87 78 77 65 47 45 42 36 34 31 26 22 17 14 15 17 19 21 18 16
89 80 68 56 56 60 52 52 52 73 85 85 85 81 98 99 94 84 79 77 57 49 50 41 40 35 28 22 17 18 21 22 21 18 16 14 11 10
99 87 81 60 63 73 64 55 72 88 87 75 89 86 79 80 71 67 52 50 50 44 43 33 23 19 20 24 24 21 17 14 11 10 9 7 6 5
88 71 65 60 73 76 60 65 92 93 85 72 66 67 67 61 46 51 57 49 44 31 22 21 23 26 26 20 14 11 9 7 5 4 4 4 3 3
85 64 57 71 77 62 66 90 90 82 70 60 63 57 53 58 59 50 53 46 31 22 26 29 22 18 13 9 6 5 5 5 5 4 3 2 2 2
68 64 72 81 66 74 91 91 82 68 69 65 63 64 61 53 51 47 33 29 32 26 23 24 12 8 5 4 4 4 3 3 3 3 3 3 3 3
76 71 85 69 80 94 82 66 69 71 62 63 63 52 56 40 33 32 32 29 30 22 16 10 6 6 5 3 2 2 2 4 4 4 3 3 2 2
75 89 69 87 84 65 66 76 75 70 61 53 50 40 36 35 35 31 24 21 17 9 7 7 5 3 2 2 2 3 4 3 4 4 4 3 3 3
85 81 84 64 70 84 84 78 71 62 65 51 39 39 36 29 21 20 17 12 8 6 5 4 3 3 4 3 2 2 3 4 4 5 6 5 5 5
84 66 79 91 86 77 78 78 74 60 49 44 38 30 26 23 18 13 8 7 6 4 2 3 4 4 4 3 2 3 5 6 6 6 5 5 5 5
89 94 88 81 85 77 61 57 56 50 43 38 32 26 21 16 9 6 6 4 3 4 3 4 4 4 5 4 3 3 4 5 4 4 4 4 4 5
87 84 84 74 62 59 56 54 46 42 39 36 26 18 11 8 6 5 3 3 4 4 3 5 6 4 4 4 4 3 4 4 3 3 3 3 4 4
96 81 74 72 67 62 53 46 42 36 29 20 14 9 7 6 4 3 4 3 3 4 4 3 4 3 3 4 4 4 4 4 3 4 4 4 4 4
79 78 72 63 56 47 42 35 31 24 15 11 8 7 6 4 4 4 4 4 3 3 3 4 3 3 4 4 4 4 4 4 4 4 4 4 4 4
72 63 54 48 44 38 35 27 19 13 9 7 6 5 4 5 4 5 4 4 4 3 3 4 3 3 4 4 4 5 4 4 4 4 5 5 5 6
62 55 47 40 36 31 20 14 10 7 7 5 5 6 6 6 5 4 4 4 3 3 3 3 3 4 4 5 5 5 5 5 6 6 7 8 8 8
49 42 40 33 24 15 11 7 7 6 6 6 6 6 7 5 4 4 4 3 3 3 3 4 4 4 4 5 6 6 6 6 7 7 8 8 8 7
44 39 26 16 11 8 6 6 6 6 7 6 8 7 6 6 6 5 4 4 4 4 4 4 4 5 5 5 6 6 6 6 7 7 9 10 11 10
35 20 11 9 7 7 6 6 7 7 7 9 8 7 7 8 6 5 5 5 5 5 5 5 5 6 7 7 8 10 12 14 14 12 11 11 11 9
14 10 8 7 6 6 7 8 7 7 10 8 8 8 9 8 7 7 8 8 8 9 9 10 11 12 13 13 13 12 11 11 10 9 8 7 6 6
10 8 7 6 6 7 8 8 8 10 9 9 9 10 10 9 11 13 14 16 18 18 17 15 14 13 12 11 10 9 8 8 7 7 6 6 5 4
8 7 7 7 8 8 8 10 11 10 9 9 10 11 11 14 18 20 21 21 20 17 16 14 12 12 11 11 10 9 8 8 8 7 7 6 6 5

GFSNE_250_rhum_063.txt.gz
RH
100 100 98 98 98 100 100 88 98 77 84 82 68 67 70 56 51 54 64 68 77 76 74 64 57 57 59 63 63 56 50 46 40 37 34 28 26 23
99 100 98 92 100 98 99 99 86 67 64 78 75 84 81 61 59 73 88 90 90 78 71 73 71 61 58 54 51 46 40 38 36 33 29 23 18 15
100 100 100 100 100 90 94 91 84 72 68 70 70 80 70 63 80 93 88 84 81 82 76 68 62 56 54 52 48 43 39 32 22 18 18 19 19 20
100 100 100 100 96 100 97 94 90 71 69 65 69 72 62 78 81 80 84 80 69 62 59 55 50 48 48 40 29 24 23 23 22 25 24 22 17 13
100 100 100 100 100 86 92 90 76 72 71 62 63 60 69 67 65 67 64 64 59 53 50 45 36 28 25 24 24 26 24 20 18 14 10 7 5 4
97 100 100 100 98 86 93 79 71 76 69 64 59 61 62 60 62 62 62 57 52 39 33 32 30 30 28 22 19 17 14 9 6 5 5 4 4 3
100 98 95 92 86 83 70 75 78 69 70 62 68 72 67 66 58 54 49 39 38 35 34 30 21 20 18 14 9 5 4 5 5 4 3 2 2 2
82 82 83 74 70 72 77 72 69 76 77 83 81 76 60 53 51 39 40 38 30 29 25 22 14 9 6 5 5 4 4 3 2 3 3 3 3 3
75 82 81 76 80 80 75 81 84 94 90 81 60 59 47 42 41 38 32 27 23 18 10 9 6 6 5 4 3 2 2 2 3 4 4 3 2 2
96 84 94 90 84 88 89 100 100 84 68 61 56 53 47 37 30 25 21 16 12 7 4 5 5 4 3 3 3 2 2 2 3 7 5 2 3 3
98 96 93 97 97 100 95 85 76 66 62 56 48 41 35 27 20 16 11 8 6 5 4 3 3 4 4 4 3 2 2 3 5 4 3 3 4 4
95 99 100 100 94 78 74 67 68 63 57 51 41 30 26 20 11 7 6 5 4 4 3 4 4 3 4 4 3 2 2 3 4 3 2 3 3 3
100 94 76 72 70 65 66 69 64 56 48 38 32 25 15 10 8 6 4 3 3 4 4 4 4 3 3 4 3 2 3 3 3 3 3 3 3 3
80 80 78 78 80 83 74 62 54 44 36 27 17 12 9 6 6 4 4 4 3 4 4 3 4 3 3 3 3 3 3 4 3 4 4 4 4 4
79 86 86 92 84 67 56 48 38 31 21 13 10 8 6 6 5 5 5 5 5 4 3 3 3 3 2 3 3 4 4 4 5 5 4 5 4 4
94 93 86 68 56 51 41 35 28 17 11 10 8 6 6 6 6 6 6 6 5 4 4 4 3 3 3 4 4 5 5 6 6 5 5 5 5 5
90 74 60 54 48 40 30 21 12 10 8 7 6 6 7 6 7 7 6 6 5 4 4 4 4 4 4 4 5 5 6 6 6 6 7 6 6 7
67 59 53 46 40 28 15 10 9 8 7 6 7 8 7 8 7 7 7 6 6 6 6 6 5 5 5 5 5 6 6 6 7 7 7 7 7 8
58 53 43 34 20 11 9 8 7 6 6 8 8 8 8 7 8 8 8 9 11 12 12 12 12 10 8 8 9 8 8 9 10 10 11 12 12 12
50 38 25 14 10 8 7 7 7 7 8 8 9 9 7 9 9 11 13 17 19 18 16 15 14 14 14 13 12 11 11 10 10 9 8 8 8 8
30 19 11 9 7 7 8 8 8 8 8 10 9 8 9 10 12 18 22 24 20 17 15 14 12 11 10 10 10 9 9 8 8 8 7 6 6 6
16 11 9 7 7 8 10 9 10 11 12 10 9 10 12 13 19 22 24 22 18 16 14 14 13 12 12 11 10 9 8 9 8 7 6 6 6 6
11 9 7 8 10 11 10 11 13 12 10 10 11 12 13 20 24 27 26 21 17 15 15 15 15 14 13 12 11 10 10 9 9 9 8 7 7 6

GFSNE_250_rhum_066.txt.gz
RH
100 100 100 100 100 100 100 91 93 97 99 100 89 88 86 87 84 80 76 66 72 68 70 63 59 64 70 72 76 78 77 76 70 68 66 62 55 49
100 100 100 100 100 100 100 98 100 96 95 100 92 97 99 95 82 84 71 62 63 67 62 61 73 79 79 76 72 65 64 64 62 61 54 49 42 39
100 100 100 94 96 97 100 100 100 93 93 100 100 100 93 86 82 70 61 60 62 58 59 63 62 64 65 64 60 58 56 53 51 48 45 43 40 33
69 76 76 77 85 91 100 94 94 80 75 83 90 84 79 81 64 61 64 65 64 59 56 56 57 54 47 44 41 38 36 35 32 28 25 22 20 19
95 100 100 100 100 88 82 83 95 90 76 78 85 81 71 61 62 67 68 70 67 66 60 50 43 35 36 36 36 36 35 32 30 29 26 23 20 16
100 100 100 100 100 93 94 92 94 90 96 88 67 55 58 61 67 63 67 72 72 67 55 43 38 37 34 30 27 23 21 18 16 14 12 10 8 7
98 100 90 89 100 100 95 100 98 85 75 58 61 65 68 65 65 72 83 72 58 47 46 44 34 28 22 16 12 8 6 5 4 4 4 4 4 4
95 100 100 95 91 97 92 81 62 65 69 73 81 81 74 77 96 78 54 48 53 45 36 30 20 14 8 6 5 4 4 3 3 3 3 3 3 3
100 100 92 95 88 81 67 73 80 77 80 87 76 75 98 81 51 52 48 42 34 24 15 15 8 6 4 4 3 2 2 2 2 3 3 4 4 4
88 94 79 72 72 80 82 84 89 92 84 87 92 79 58 52 49 39 34 30 20 13 7 8 5 4 4 3 3 2 2 2 2 4 4 5 4 3
92 78 87 92 94 85 88 96 99 100 96 79 64 56 52 40 36 30 25 17 10 8 5 4 4 4 4 3 3 2 2 2 3 3 3 3 2 2
100 100 100 100 99 100 100 100 90 79 73 65 55 46 39 36 28 22 12 8 7 6 5 5 5 4 4 3 3 2 2 2 2 3 3 3 3 3
97 99 100 100 100 98 87 74 71 66 62 58 50 45 38 27 18 10 7 6 6 6 6 6 5 4 3 3 3 3 3 2 2 3 3 3 3 3
100 100 96 90 85 74 70 66 66 63 60 53 46 36 23 12 8 7 6 6 6 7 7 6 6 4 4 4 4 4 3 3 3 3 4 4 4 4
92 93 91 84 76 74 76 72 63 55 47 39 27 15 9 8 7 7 7 7 6 7 8 6 6 6 5 5 5 4 4 3 4 5 5 4 4 4
99 90 80 78 78 78 66 58 50 42 29 17 10 8 7 7 7 8 8 9 8 7 8 11 9 9 8 7 6 6 5 5 5 5 6 6 6 6
86 87 84 74 65 57 50 44 30 14 10 8 8 7 8 8 8 10 10 9 10 9 11 14 16 14 13 13 13 11 9 7 6 6 6 5 5 6
83 74 67 62 54 44 33 16 10 9 8 7 8 9 9 10 10 9 10 11 13 18 20 17 14 14 13 11 11 10 11 12 12 11 10 9 8 8
73 67 62 50 38 23 11 10 8 7 8 9 10 9 11 11 10 11 12 16 22 23 20 17 15 13 11 11 11 9 9 9 8 8 9 9 9 9
64 54 41 32 17 11 10 8 7 9 10 10 12 12 10 10 11 12 17 22 23 20 17 16 14 13 13 11 10 10 9 8 8 8 7 7 7 7
46 34 23 12 12 11 9 9 10 10 11 13 12 10 10 12 12 20 23 26 24 20 18 15 15 15 14 14 14 14 12 11 9 8 7 7 7 6
28 14 12 12 11 10 11 10 11 13 15 13 11 12 13 15 21 24 25 25 21 19 16 15 16 16 15 15 15 15 14 13 12 10 9 8 7 8
16 13 12 12 10 12 12 11 14 16 13 12 12 13 14 23 25 26 26 25 20 17 16 16 18 18 18 17 16 15 14 14 14 12 10 8 7 7

GFSNE_250_rhum_069.txt.gz
RH
100 100 100 100 100 100 100 100 100 100 100 100 98 94 92 90 93 85 80 72 71 66 63 67 67 65 60 56 56 54 53 52 58 67 73 74 73 72
100 100 100 100 100 100 100 100 100 99 100 98 94 82 79 76 75 75 70 73 74 73 69 67 62 54 55 55 55 55 56 56 55 56 56 57 58 59
100 100 100 100 97 99 100 78 90 92 91 78 82 90 94 86 79 73 68 64 68 71 64 54 53 56 52 54 53 52 47 45 45 45 45 44 45 48
100 100 100 98 97 100 100 93 100 79 73 77 73 80 84 82 87 75 79 84 70 64 55 54 56 54 48 43 37 40 40 35 28 24 24 26 28 28
98 96 94 100 98 100 100 100 100 100 86 92 78 69 79 78 83 82 80 66 68 67 62 54 50 40 38 31 34 34 28 32 33 30 26 24 23 22
79 82 91 98 99 99 88 75 66 78 99 80 98 99 93 86 79 66 72 76 76 68 59 46 47 41 41 39 29 27 23 18 14 10 8 7 6 6
84 100 99 98 100 83 86 90 95 94 95 95 92 91 73 61 68 75 72 68 73 59 65 57 45 45 35 28 21 13 8 6 6 5 4 4 4 4
98 92 97 89 99 100 77 72 76 97 97 86 75 71 75 78 74 65 70 70 73 61 59 58 44 35 25 14 7 5 4 3 2 2 3 3 2 2
89 79 85 76 77 81 84 93 90 81 80 76 69 76 77 72 75 84 84 69 60 53 41 42 32 23 10 6 4 3 3 3 3 3 3 3 3 3
100 78 71 79 82 81 82 83 84 79 78 80 84 87 88 84 80 69 60 54 49 42 30 32 21 9 6 4 4 4 4 4 3 3 2 2 3 3
68 71 86 88 91 91 96 99 100 100 99 100 98 90 79 67 61 54 48 42 37 27 16 11 8 6 5 4 5 5 4 4 3 3 2 2 2 2
93 97 100 95 90 92 100 100 100 100 100 88 75 68 62 52 43 40 39 34 22 11 9 8 6 6 7 5 5 6 4 4 4 4 3 3 2 2
86 95 100 100 100 100 100 100 96 86 81 69 57 51 43 38 38 33 20 11 9 8 7 8 8 8 7 8 6 9 7 4 5 4 4 4 4 3
100 100 100 100 100 98 93 85 78 67 60 55 49 44 40 35 22 11 9 8 7 9 9 9 9 8 10 11 12 10 12 8 6 5 5 5 5 5
96 90 95 96 98 90 80 69 64 60 52 44 42 38 28 13 10 8 8 8 8 9 10 9 10 12 15 16 13 12 11 12 11 8 6 5 5 5
90 88 92 87 77 74 68 60 52 48 42 36 25 13 10 9 9 10 10 9 10 8 10 12 15 18 15 13 12 10 10 9 10 10 10 8 6 6
78 78 78 76 67 64 56 48 40 31 21 13 10 10 9 10 10 11 12 11 11 10 10 14 18 17 16 13 10 12 9 10 10 9 9 9 11 11
81 78 71 63 56 47 40 29 18 12 11 10 9 10 10 10 11 12 11 11 12 18 19 19 16 12 13 18 15 11 13 13 11 9 9 8 7 8
75 66 53 46 41 28 18 14 12 10 11 10 11 11 13 13 12 12 12 14 21 23 24 20 17 15 14 14 17 15 13 12 11 12 11 8 8 8
59 50 41 30 21 18 12 10 11 10 12 12 12 15 13 12 13 14 15 22 23 24 20 17 18 17 18 17 16 16 17 17 15 13 13 12 8 7
46 34 32 24 18 11 10 12 10 12 12 13 16 14 12 13 14 16 24 24 24 23 20 20 19 20 20 20 22 20 19 16 14 12 10 9 11 10
37 37 30 20 13 12 12 11 13 13 16 18 15 12 14 14 15 25 24 26 24 20 22 20 21 23 22 23 21 17 16 17 18 18 14 11 11 10
45 36 26 19 14 13 12 12 14 16 19 18 14 13 15 15 26 26 28 24 20 22 20 23 26 25 24 24 20 22 24 25 20 14 14 15 12 10

GFSNE_250_rhum_072.txt.gz
RH
100 100 100 100 100 100 100 100 96 87 100 99 100 100 99 86 64 56 81 75 82 82 81 75 73 77 70 71 63 63 70 69 65 58 52 52 56 57
100 100 100 100 100 100 100 100 100 100 100 100 100 88 88 76 72 57 47 54 62 71 75 80 74 75 69 66 69 66 59 55 50 51 52 54 55 57
100 100 100 100 100 100 100 100 100 100 85 99 100 100 100 99 96 97 85 83 72 85 82 73 66 70 67 65 59 61 59 57 57 54 51 49 48 47
100 100 100 100 100 100 100 100 86 88 88 90 100 100 100 96 100 100 91 86 88 89 76 80 73 70 55 55 59 51 41 40 41 38 36 36 36 35
100 100 100 100 100 100 98 90 83 88 73 89 100 98 99 97 77 73 91 92 92 85 79 68 65 63 55 49 43 39 35 37 39 38 35 32 28 24
96 100 100 100 100 94 94 88 76 99 99 98 99 88 74 85 91 98 98 93 92 86 74 72 59 47 47 45 39 37 39 38 36 32 25 15 9 6
64 78 87 93 100 91 100 83 86 91 82 85 88 88 90 81 77 83 92 91 78 67 60 63 56 65 57 47 40 37 35 30 20 12 6 5 4 4
84 100 100 100 100 100 84 85 80 80 83 83 96 91 79 88 94 78 65 65 72 65 74 83 64 71 52 43 33 24 13 8 7 5 3 3 3 3
100 100 100 100 98 67 73 76 72 77 84 85 94 96 92 79 66 70 73 77 83 82 71 76 62 54 45 32 12 7 7 7 6 4 5 4 4 4
95 100 87 70 64 68 79 90 96 98 96 88 83 69 65 68 72 82 88 86 70 60 52 52 48 42 26 10 7 7 7 6 7 6 6 4 4 4
68 78 75 79 87 93 100 99 92 80 81 76 72 83 90 89 80 70 68 61 57 50 44 46 30 17 10 6 6 7 7 8 8 7 7 8 7 4
85 85 81 86 93 88 88 88 90 92 100 95 92 85 78 70 62 55 48 46 39 34 24 17 10 8 9 6 6 8 7 8 8 10 10 10 9 6
81 84 90 95 97 100 100 100 100 100 96 85 75 64 55 49 46 42 35 24 15 11 10 10 9 10 10 13 8 10 11 12 12 12 11 10 9 8
99 100 100 100 100 98 92 87 81 74 67 59 53 48 40 33 28 20 13 10 10 10 10 11 11 12 12 11 10 14 14 14 13 11 10 9 9 9
93 89 86 84 85 81 76 71 64 58 52 45 36 28 19 15 13 11 10 9 10 12 14 14 13 11 13 18 19 15 16 13 14 11 10 9 8 9
81 81 82 79 70 61 56 54 49 40 30 22 17 16 13 11 11 11 10 11 11 12 13 12 13 17 22 24 20 14 13 14 11 10 10 10 8 8
72 67 62 59 58 57 51 39 28 24 23 18 12 10 11 10 10 12 14 13 12 10 12 16 21 24 24 26 17 17 15 16 14 12 11 9 8 7
65 66 61 57 52 42 31 26 29 23 18 11 12 11 11 12 13 16 14 11 12 15 19 20 22 19 17 20 19 19 19 17 16 15 14 13 11 8
64 60 56 46 37 37 40 31 23 16 13 12 12 13 14 17 18 13 11 13 16 23 26 26 22 20 16 16 18 19 20 18 19 20 16 14 10 8
64 57 51 40 50 48 31 23 16 13 13 12 15 15 18 18 14 13 14 16 24 27 27 24 21 19 22 25 23 21 25 24 20 15 13 13 16 16
63 55 48 47 59 40 28 19 13 14 13 14 16 20 21 15 14 15 16 24 27 27 22 21 20 24 31 35 36 39 40 39 34 26 19 13 9 12
62 50 39 59 58 36 24 16 15 14 14 16 19 22 18 15 15 16 23 28 30 25 25 23 30 37 41 45 45 47 46 39 40 42 37 31 22 12
53 41 52 64 54 32 20 15 15 14 14 15 22 22 16 15 17 20 28 30 26 23 26 29 35 37 45 63 69 63 57 48 44 44 45 40 34 20

GFSNE_250_rhum_075.txt.gz
RH
100 100 100 100 100 100 100 100 100 100 100 100 100 98 96 100 100 100 100 100 100 94 90 72 76 71 99 84 85 90 88 85 84 79 68 71 73 71
100 94 89 90 99 100 100 100 100 100 100 98 82 100 88 86 100 100 90 84 95 100 99 90 99 100 92 96 93 97 95 89 80 78 72 64 62 62
86 83 82 84 86 100 100 100 100 100 100 100 100 100 100 100 99 77 74 80 100 100 100 100 97 100 85 76 85 76 86 81 69 62 65 70 67 63
56 69 86 79 100 100 100 100 100 100 100 100 100 100 100 100 76 69 71 75 81 82 87 100 100 80 70 69 77 74 72 70 72 73 67 58 50 46
46 66 87 97 100 100 100 100 100 100 100 100 100 100 90 67 70 86 88 90 97 83 88 85 86 76 81 86 81 72 64 59 51 46 43 43 41 40
34 44 55 61 72 72 81 82 85 91 100 95 98 88 80 73 77 87 83 90 96 91 89 84 82 71 65 57 47 40 42 44 45 41 41 41 36 28
39 43 51 54 50 54 71 81 85 91 94 99 82 78 71 79 86 82 81 84 90 86 84 87 75 61 57 50 45 45 43 42 45 47 47 36 21 10
43 50 43 49 65 86 94 92 94 88 94 90 71 72 79 80 88 90 94 87 92 80 60 58 52 52 52 45 43 43 42 44 44 35 18 8 7 5
61 61 72 74 77 84 88 82 75 76 74 76 82 85 86 80 74 79 69 60 56 52 52 62 55 56 50 45 43 39 31 23 13 9 7 6 6 5
68 64 62 66 67 65 69 75 80 86 87 86 83 82 81 77 73 72 66 63 62 54 49 57 52 51 45 28 20 15 11 10 8 8 8 7 6 6
67 67 65 68 70 72 79 79 73 70 68 69 71 75 76 75 72 67 59 57 60 52 48 48 33 26 17 10 10 10 9 10 9 9 9 8 8 8
67 70 75 76 75 74 75 78 81 83 84 88 91 82 71 67 63 59 56 52 42 34 25 21 12 11 12 8 8 9 10 11 12 11 12 12 12 11
83 85 87 90 94 98 100 97 94 90 80 69 67 67 65 58 49 40 32 26 21 18 14 12 10 9 9 12 8 9 9 10 13 16 15 12 10 10
93 94 94 92 89 84 80 78 73 68 64 61 56 48 37 30 27 25 21 18 12 12 11 11 10 10 12 14 12 10 9 13 17 15 15 14 12 11
87 85 82 80 72 66 60 57 59 60 53 38 36 36 33 24 19 14 12 11 11 11 13 12 12 13 13 13 15 11 16 14 15 15 15 14 13 12
80 81 79 74 68 59 56 61 61 49 39 46 43 25 18 14 11 11 11 10 11 12 18 16 14 14 15 20 20 20 20 17 16 16 16 16 15 12
78 78 74 66 55 55 57 60 48 38 53 49 26 17 11 11 11 11 11 11 13 14 12 13 14 17 22 26 24 23 22 20 19 17 16 15 16 15
82 78 67 60 57 58 58 44 35 60 57 32 17 12 11 12 11 13 14 18 16 13 14 13 19 23 26 23 21 22 23 23 27 30 27 23 20 23
72 68 65 63 61 58 43 41 65 66 46 23 14 12 12 12 13 14 19 17 15 16 18 22 23 24 22 22 22 23 24 27 27 30 24 20 16 15
72 69 68 65 63 47 52 68 70 60 31 18 13 13 12 13 15 19 18 16 16 20 28 28 27 24 23 24 29 38 43 52 50 41 34 29 25 22
78 74 68 67 56 59 70 71 68 44 22 14 14 14 13 15 19 20 16 16 17 27 29 27 24 24 28 34 36 45 56 60 62 69 56 43 25 17
81 78 70 64 54 72 71 68 59 34 19 14 15 13 14 16 21 17 17 16 26 29 28 24 24 27 35 44 52 60 59 72 83 89 83 67 57 41
86 76 75 51 60 74 69 67 48 28 19 16 14 14 15 18 22 16 17 20 29 30 25 24 26 33 46 54 76 81 70 80 86 78 79 82 63 49

GFSNE_250_rhum_078.txt.gz
RH
83 85 85 91 100 100 100 100 100 100 100 100 100 100 100 100 100 100 100 100 100 100 100 100 100 100 97 80 81 87 86 92 94 100 88 89 81 80
50 56 68 84 93 99 99 97 90 84 83 100 100 100 100 100 99 99 100 100 100 100 100 100 100 97 69 74 87 94 98 100 100 100 100 93 86 80
55 60 63 56 55 51 54 60 72 75 98 100 100 100 100 100 100 100 100 100 100 100 100 100 98 75 69 75 97 98 100 94 100 100 98 86 79 78
32 21 24 25 27 31 37 40 49 66 90 88 93 100 100 100 100 100 100 100 100 100 100 80 76 73 75 91 100 85 83 77 80 77 78 80 77 71
19 15 13 17 22 37 44 48 51 53 58 61 74 89 97 97 98 100 97 93 95 88 78 74 75 74 69 78 75 74 69 72 70 69 70 63 56 54
10 10 10 11 15 27 47 63 65 56 56 63 68 71 75 81 88 90 90 94 90 80 72 68 70 64 71 71 67 59 57 57 56 57 59 61 58 53
10 10 13 19 30 44 57 55 58 60 57 65 81 94 94 95 95 91 86 78 68 62 63 63 60 58 52 48 47 50 51 53 53 52 50 48 45 40
21 23 32 41 52 62 72 70 76 75 77 80 72 61 57 58 61 67 69 69 64 57 55 53 53 54 50 49 50 49 46 41 38 36 33 28 22 15
33 37 39 45 46 49 54 57 58 63 64 63 64 64 63 62 62 62 60 59 57 56 61 59 51 52 44 38 37 35 29 26 24 25 14 11 10 9
43 51 57 59 61 62 64 67 68 69 68 67 68 68 64 61 61 62 62 61 57 52 52 54 40 45 35 22 21 20 20 20 16 11 10 9 8 8
52 56 61 58 60 60 64 65 67 68 65 65 64 63 64 66 67 65 64 59 50 34 37 38 30 34 22 16 18 18 13 10 10 9 10 10 10 9
57 61 64 64 67 70 70 71 75 77 76 74 70 67 66 66 65 62 52 36 33 33 33 24 16 17 16 9 9 11 10 10 11 12 13 12 10 10
72 70 70 73 74 75 78 83 84 80 76 69 66 65 62 58 49 34 28 33 27 18 16 13 10 9 10 11 8 9 10 11 13 14 14 15 17 18
74 70 73 82 93 96 93 87 79 68 66 64 62 55 44 32 27 36 36 20 13 10 9 10 10 9 9 12 12 11 10 13 16 16 20 18 16 15
79 86 91 94 92 86 77 68 66 64 62 58 47 41 46 50 41 34 18 11 10 10 12 12 11 11 16 15 13 12 14 16 20 17 16 15 16 15
85 82 83 86 84 74 66 63 63 64 63 48 55 66 59 44 34 17 11 11 10 10 14 16 16 15 14 16 17 18 21 21 19 20 21 25 28 26
76 80 82 76 69 67 61 62 64 62 54 49 71 67 51 32 15 11 12 11 10 12 15 17 16 14 16 21 22 24 24 23 24 27 30 21 34 35
78 79 74 74 72 64 58 64 67 60 43 65 70 58 42 21 11 11 12 12 13 15 18 14 13 15 22 25 27 25 22 24 40 50 51 48 46 45
77 75 75 73 66 57 62 68 58 42 53 70 66 54 34 15 12 12 12 14 16 20 16 14 15 24 27 27 23 24 28 32 32 46 52 56 52 47
76 74 70 64 63 60 67 63 53 58 68 65 63 47 23 13 12 12 12 15 20 17 16 16 22 28 27 26 29 39 52 60 66 68 64 59 59 53
74 72 70 63 61 71 69 58 66 71 62 64 54 29 16 13 12 12 13 19 20 15 15 21 25 28 26 29 34 40 57 72 81 82 87 74 65 63
73 73 65 65 68 56 50 59 73 60 65 63 38 21 14 13 12 13 15 21 16 16 17 25 28 25 24 31 37 54 62 71 79 86 100 91 79 74
80 69 68 60 47 46 56 67 54 60 67 49 28 16 14 14 12 13 17 20 16 16 22 26 25 22 26 36 50 74 79 86 86 78 88 100 100 98

GFSNE_250_rhum_081.txt.gz
RH
48 49 52 51 51 52 57 54 43 38 38 43 58 65 80 100 100 100 100 100 100 100 100 100 100 100 100 100 100 100 100 100 91 100 96 80 80 86
58 63 54 55 55 48 40 25 24 27 30 34 42 46 60 71 89 100 100 100 100 100 100 100 100 100 100 100 100 100 100 100 100 94 83 84 87 90
64 87 73 61 41 27 22 21 23 22 23 34 46 60 60 66 88 91 100 100 100 100 100 100 100 100 100 100 100 100 100 98 99 80 80 81 89 90
96 78 80 42 24 23 17 8 9 11 14 23 37 50 64 80 71 78 99 90 89 100 100 86 100 100 100 100 92 100 100 90 81 72 76 74 68 67
92 86 40 37 35 28 16 9 10 14 19 27 35 44 58 61 76 81 78 83 71 85 95 89 83 82 92 94 86 85 73 65 59 61 64 67 67 65
75 45 43 42 37 27 21 21 24 26 34 48 57 60 62 62 60 63 67 71 74 83 80 74 65 64 61 56 54 55 56 59 60 62 64 65 65 62
46 46 48 42 39 31 27 30 40 43 50 55 61 62 62 60 58 58 58 58 58 61 61 59 62 61 58 58 60 61 63 64 63 64 64 63 61 57
48 52 45 43 42 34 31 34 39 44 47 48 52 56 58 60 64 65 66 64 63 64 60 57 61 54 50 46 47 46 43 40 40 41 41 40 38 35
55 46 45 46 45 42 40 42 47 52 58 61 62 64 65 68 70 68 62 58 56 57 60 45 48 42 36 32 32 27 26 27 26 24 22 20 16 14
55 50 52 52 50 50 46 45 50 56 61 65 71 77 81 81 75 67 62 60 57 55 57 45 35 31 24 23 24 28 29 25 20 18 15 14 12 11
59 55 57 56 54 52 56 62 65 66 65 68 71 71 71 71 68 66 65 56 43 37 37 37 36 43 30 22 17 14 13 12 11 10 10 10 9 9
62 61 64 64 65 69 66 63 62 60 60 60 63 69 70 69 67 63 50 36 47 45 48 41 30 25 14 9 9 11 12 11 10 10 10 10 11 10
67 71 75 73 72 65 67 67 63 59 59 61 64 67 70 68 62 47 35 46 47 44 38 23 12 9 10 10 8 11 11 12 14 15 14 13 13 13
76 79 74 71 64 68 70 65 61 60 61 60 65 69 68 53 38 37 53 52 44 36 19 11 10 10 10 10 10 11 14 15 15 13 15 17 19 24
81 80 76 70 71 75 70 65 62 59 56 58 61 57 52 50 50 57 52 44 35 20 14 12 12 10 11 13 13 16 12 16 17 18 23 26 24 22
86 82 74 74 72 68 65 62 59 58 59 59 56 49 50 60 58 57 50 40 26 13 13 14 13 13 14 20 18 14 17 18 24 25 23 22 28 31
81 75 75 67 64 66 63 60 60 60 56 48 42 41 58 64 58 61 55 33 17 13 12 14 16 17 20 18 17 17 22 25 24 25 22 27 41 43
81 75 66 67 67 63 62 64 64 58 50 46 45 53 59 56 63 57 38 21 14 13 12 15 18 19 17 20 19 24 26 26 26 30 43 43 59 68
74 71 66 65 63 64 66 64 64 55 61 58 46 47 53 62 61 42 24 15 14 13 13 17 20 17 15 20 26 28 27 24 32 51 65 68 73 82
72 67 70 66 63 67 70 62 60 55 62 51 39 46 62 65 50 30 18 15 14 13 12 20 20 16 16 26 28 28 26 33 38 57 76 80 79 82
74 73 72 68 66 69 64 63 54 57 57 45 42 54 66 55 35 21 15 14 14 14 13 18 19 15 20 27 28 24 26 33 55 75 79 81 80 82
80 72 67 70 71 67 63 59 55 57 44 38 44 60 58 37 25 16 13 13 13 14 18 18 17 16 25 28 25 24 34 52 70 88 100 97 81 77
80 75 74 74 69 70 63 61 63 44 37 38 52 60 42 26 17 14 13 13 13 13 19 16 16 19 28 26 25 28 44 55 69 75 96 100 100 98

GFSNE_250_rhum_084.txt.gz
RH
65 62 71 44 47 46 55 56 58 51 29 26 24 18 14 19 24 41 63 71 68 90 91 99 100 100 100 100 100 100 100 100 100 100 100 100 100 100
74 71 39 47 46 67 63 74 69 47 27 27 30 18 10 10 13 24 58 76 94 100 100 94 82 93 100 100 100 100 100 100 100 100 100 100 100 100
68 42 48 54 63 84 88 88 66 33 31 35 25 16 11 11 18 23 33 57 60 77 100 99 99 89 100 100 100 100 100 100 100 100 100 100 100 100
46 50 57 60 85 96 90 64 42 40 37 43 28 25 24 26 28 38 44 62 81 89 92 100 99 94 96 100 92 88 100 100 100 100 100 100 99 100
61 68 77 81 95 86 54 43 48 43 46 43 33 29 30 34 40 48 56 64 69 72 76 83 81 95 88 88 83 85 99 95 100 93 95 78 65 61
78 83 86 89 91 57 42 47 50 46 49 45 37 35 41 46 49 54 58 61 63 64 66 70 68 65 66 66 65 66 64 65 63 64 63 64 63 63
99 93 78 84 51 47 46 61 51 51 53 51 45 47 47 48 52 55 57 57 62 61 61 60 58 60 58 55 52 50 50 51 51 51 50 50 49 49
88 82 81 48 43 43 62 60 56 59 60 59 55 50 47 48 50 52 55 59 62 57 54 55 49 48 44 42 40 38 37 38 39 41 42 44 44 44
88 67 55 48 44 58 66 64 65 66 66 58 55 55 53 53 55 55 54 54 55 55 54 48 45 41 35 29 26 34 40 36 30 25 22 22 23 22
63 62 48 47 48 59 67 68 74 71 62 59 60 56 51 51 55 57 59 56 57 59 56 39 32 26 22 29 42 44 41 35 30 27 25 22 17 14
64 50 50 50 56 64 72 75 74 70 68 63 57 54 53 57 58 56 53 53 53 53 48 47 39 41 36 34 33 27 17 12 10 9 9 9 8 8
50 52 50 55 67 71 76 81 81 72 64 57 54 54 56 56 54 51 49 48 45 41 52 47 40 39 32 18 12 10 10 10 10 9 9 9 9 9
57 53 56 68 70 70 82 86 75 68 60 57 57 56 55 53 53 51 45 39 40 48 48 40 38 32 18 10 7 10 11 12 11 11 11 11 12 14
58 63 71 70 76 89 91 82 75 64 59 57 54 57 57 57 54 61 56 48 45 40 40 46 39 23 11 9 9 9 11 14 14 17 16 16 16 16
71 74 72 76 91 92 87 80 68 60 56 58 59 59 59 55 54 64 41 35 36 45 48 48 33 18 12 11 10 12 12 18 20 16 15 20 22 22
87 76 83 98 99 92 82 72 64 60 58 60 61 59 55 52 58 47 36 39 46 48 47 38 27 18 13 12 13 14 17 14 18 18 20 25 29 29
81 93 100 100 91 83 76 66 64 62 58 64 63 58 51 55 41 36 39 48 56 50 32 22 20 17 13 13 15 21 17 16 18 25 26 31 32 31
100 100 98 91 85 79 71 63 63 64 64 65 62 55 55 46 34 36 46 57 54 40 27 18 17 15 12 13 26 17 15 18 25 29 29 29 34 44
100 100 90 87 81 83 70 71 72 72 69 67 62 58 55 38 33 38 47 51 42 28 16 15 16 16 12 12 24 19 15 26 29 31 29 30 45 64
97 92 89 89 91 84 75 76 75 74 71 69 62 58 46 34 35 41 47 43 28 18 14 14 16 15 13 16 17 22 18 28 30 30 36 46 51 62
86 83 86 91 90 90 84 82 77 75 75 66 54 43 34 33 36 46 46 32 20 18 18 13 14 15 15 18 15 19 23 30 28 34 44 51 63 70
86 90 91 92 89 86 82 78 76 80 75 57 41 32 31 33 40 47 39 22 18 19 18 13 13 13 18 18 15 20 28 28 28 38 48 47 53 62
93 84 82 88 84 85 81 80 81 79 63 42 31 30 31 34 43 42 28 18 18 18 16 12 12 15 18 17 14 23 28 24 28 37 48 79 79 87

GFSNE_250_rhum_087.txt.gz
RH
97 95 94 91 80 83 88 74 56 48 44 63 82 69 35 32 37 40 37 27 18 15 13 19 42 80 100 100 100 100 100 100 100 100 100 100 100 100
86 81 74 80 86 87 88 62 50 46 50 82 76 42 37 41 43 45 43 31 25 23 21 21 28 44 79 100 100 100 100 100 100 100 100 100 100 100
86 81 78 89 89 89 67 53 59 75 89 76 47 42 46 51 51 51 47 41 34 29 30 36 39 46 70 91 100 100 99 96 100 100 100 95 96 100
87 92 91 85 89 72 58 67 75 97 80 49 42 42 55 52 55 54 53 48 45 41 44 44 44 48 55 65 72 79 90 98 86 87 85 84 92 93
99 92 84 88 69 66 72 89 91 79 48 42 40 52 59 55 56 55 54 55 52 50 50 51 53 59 66 65 65 65 64 64 66 79 89 80 77 84
99 77 94 72 72 85 93 100 80 49 49 44 49 62 63 57 57 61 56 54 53 53 50 47 44 48 51 51 52 54 57 59 59 59 57 56 55 52
84 94 72 79 93 94 100 82 53 48 45 48 62 68 61 61 67 63 60 57 54 52 49 49 50 50 48 46 47 47 46 46 48 50 52 52 51 50
82 82 92 100 100 97 76 59 60 48 52 53 61 65 63 72 67 65 61 57 51 50 48 48 46 46 42 43 43 45 40 40 37 31 30 30 31 32
97 100 100 100 92 78 63 58 48 52 51 70 69 72 70 73 74 66 55 51 51 49 47 44 40 35 33 30 30 33 39 44 44 41 38 34 31 30
100 100 99 91 84 75 62 53 56 56 75 70 69 70 80 75 68 54 48 48 50 51 48 43 39 37 32 32 37 40 43 45 42 36 30 24 20 17
100 94 94 80 77 71 63 64 60 66 75 71 77 88 81 72 57 53 49 50 52 52 48 43 46 39 26 25 31 40 45 38 26 19 13 9 8 8
87 90 84 93 64 72 78 64 73 78 75 88 93 84 74 62 57 52 50 53 54 48 48 54 44 31 27 30 34 36 28 19 14 10 8 8 9 10
87 84 89 60 75 84 82 86 82 82 90 92 84 77 67 58 55 52 53 54 51 48 56 38 31 31 36 40 26 17 13 14 15 12 9 8 10 11
94 70 65 69 72 95 99 99 95 93 92 88 80 69 62 56 53 55 59 55 49 54 40 31 32 37 45 40 25 11 9 11 15 13 13 13 14 17
61 68 68 68 85 100 100 100 94 97 92 81 70 64 60 60 61 63 60 56 51 49 31 31 34 42 41 29 20 10 10 10 16 15 15 18 19 16
68 63 61 82 98 100 99 99 100 89 82 74 67 62 64 67 67 65 62 54 51 34 30 32 37 45 36 17 13 12 11 12 12 19 17 16 16 16
58 62 78 97 100 100 98 100 89 83 77 76 70 72 71 73 72 67 54 44 32 29 27 30 39 41 22 14 13 12 12 12 13 17 15 15 18 20
72 84 100 100 100 98 97 89 82 80 86 81 78 75 74 76 69 55 41 31 29 29 29 32 30 23 17 13 13 15 12 11 16 15 15 18 24 26
100 100 100 100 99 92 87 82 80 85 84 81 78 76 80 76 62 40 30 30 29 30 32 30 24 21 20 16 8 15 15 12 16 14 17 23 29 30
100 98 92 93 96 86 86 85 85 85 85 85 80 82 81 72 46 31 29 29 30 33 34 26 18 20 20 17 10 10 19 14 15 14 19 24 30 32
85 88 88 88 88 91 85 85 85 88 88 86 84 82 72 54 34 29 28 29 31 34 34 23 16 17 17 16 11 10 19 18 12 15 23 27 26 34
82 80 81 86 89 88 88 85 90 93 89 88 86 76 56 35 31 28 28 30 32 33 32 22 17 16 14 15 12 12 17 17 12 18 27 25 24 30
92 86 87 84 88 87 85 96 98 87 91 90 83 65 41 32 29 28 29 31 34 33 27 20 16 15 13 14 14 14 15 15 12 22 27 22 22 33

GFSNE_250_rhum_090.txt.gz
RH
100 100 100 100 100 100 100 86 82 92 96 100 99 77 59 70 75 74 38 36 47 48 48 49 47 43 41 38 36 31 34 37 63 95 100 100 100 100
100 100 100 100 100 98 95 89 94 89 83 96 86 58 67 71 84 45 39 47 57 58 59 56 52 49 48 44 41 42 44 45 45 61 75 91 94 96
96 100 95 83 89 95 93 93 100 98 99 86 55 72 75 78 51 44 44 58 62 65 64 60 57 55 53 48 46 48 49 53 58 55 56 59 79 89
75 77 76 87 100 96 98 100 100 99 95 55 68 80 88 51 45 42 53 58 65 61 62 58 56 52 52 52 52 53 54 54 53 54 57 62 61 57
68 94 100 100 100 100 100 91 94 98 72 66 78 84 54 48 45 48 49 63 64 65 64 61 59 52 50 49 50 51 52 52 52 53 53 54 54 54
100 100 100 100 100 100 89 98 92 79 77 92 80 58 50 48 49 50 67 67 69 71 67 60 53 49 46 48 48 47 46 44 41 42 42 43 49 52
100 100 100 100 97 94 100 90 85 91 96 81 65 61 53 53 55 67 76 71 71 71 65 63 55 50 44 45 46 45 42 38 40 39 35 35 35 38
100 100 100 100 100 100 94 83 95 96 84 68 71 55 60 55 62 78 69 75 80 72 64 54 48 45 44 47 44 38 38 40 38 29 26 28 32 37
99 87 100 98 84 95 88 98 100 87 78 74 57 69 62 77 90 80 85 79 73 67 56 52 47 45 48 47 40 38 39 29 28 30 34 37 36 34
72 99 90 77 86 99 100 99 80 84 79 60 70 81 90 93 84 80 82 76 69 59 52 46 47 49 51 45 42 41 30 28 30 38 41 36 29 22
90 93 96 100 100 100 90 86 96 84 64 66 77 94 92 96 89 88 77 69 60 54 51 49 52 52 45 43 41 33 28 30 36 43 38 27 16 11
99 100 100 100 100 88 94 97 88 66 68 68 88 92 98 100 89 78 73 63 56 54 57 59 57 53 44 40 30 26 27 34 41 39 28 19 11 8
100 100 100 96 89 92 89 84 62 65 65 83 92 98 100 90 82 75 67 62 62 62 62 60 52 43 35 30 23 23 29 35 30 21 20 16 11 10
98 92 89 91 82 84 64 62 66 62 76 94 94 98 92 84 76 73 68 67 61 61 64 62 45 34 31 28 25 24 30 22 14 15 17 14 11 10
92 92 80 73 62 58 59 60 62 75 98 92 93 94 84 77 77 74 74 71 68 67 65 48 34 31 29 26 29 30 32 16 13 14 15 12 11 11
78 70 59 56 57 55 57 64 83 94 93 91 91 83 80 81 78 78 78 75 71 69 54 38 31 30 30 27 30 31 22 20 16 14 14 12 12 14
58 60 76 80 74 79 91 99 99 99 90 86 82 80 76 76 82 79 80 79 77 61 37 29 30 30 32 31 35 25 21 20 17 14 14 12 13 18
63 68 78 87 94 99 98 100 95 88 84 79 81 77 79 87 85 84 86 86 74 48 31 28 26 26 29 35 32 25 20 22 16 12 14 12 16 18
65 68 80 90 93 97 98 88 80 79 78 82 82 84 87 89 95 91 87 78 58 37 30 26 26 27 32 38 30 15 19 18 15 11 13 16 16 16
75 70 80 88 86 82 79 78 79 82 84 84 86 86 90 96 98 90 82 62 39 32 29 24 24 28 33 39 36 15 15 18 15 10 13 19 16 15
83 76 77 75 78 83 84 82 84 84 89 91 89 89 94 98 87 84 72 46 33 30 27 25 24 27 30 30 24 17 12 14 16 12 13 20 16 15
92 87 87 88 90 94 97 89 80 90 93 92 94 94 96 87 83 78 51 36 29 26 26 25 26 27 25 22 19 16 13 11 18 13 12 19 14 16
95 95 92 98 100 94 87 89 92 95 95 99 96 94 85 85 77 54 37 31 26 24 23 26 27 23 15 12 13 14 12 11 15 16 11 16 13 19

GFSNE_250_rhum_093.txt.gz
RH
100 100 100 100 100 100 100 100 100 97 100 100 100 90 100 100 100 90 79 63 66 50 45 39 44 52 54 54 58 51 46 41 39 40 42 43 45 53
100 100 100 100 100 100 100 100 89 97 100 100 100 100 100 100 90 76 76 65 56 49 42 44 47 53 54 57 58 54 49 45 44 44 44 46 49 52
100 100 100 94 88 96 100 89 98 100 100 100 100 100 100 94 88 82 75 74 52 49 45 47 56 62 62 61 58 54 48 44 43 42 43 46 50 52
100 91 75 72 83 83 96 99 100 100 98 95 100 100 100 95 89 82 84 64 55 53 51 54 65 62 62 59 57 54 48 45 44 42 44 49 50 51
54 43 44 65 81 96 100 100 100 100 100 100 100 100 99 88 91 90 69 63 58 60 58 68 68 64 60 62 59 53 49 45 41 41 43 46 46 45
31 47 70 79 88 100 100 100 100 100 100 100 100 100 89 97 94 71 65 59 71 67 75 83 71 61 62 62 58 51 46 41 41 45 46 40 38 41
54 72 75 96 100 100 100 100 100 100 100 94 96 85 96 94 74 72 62 62 77 78 83 79 75 69 64 56 48 44 43 46 48 45 37 34 34 29
82 91 100 100 100 100 100 100 100 97 72 100 90 100 90 72 74 70 56 78 93 94 87 79 70 65 56 47 45 48 53 51 44 36 34 32 26 24
100 100 100 100 100 100 100 96 78 96 100 94 100 100 79 87 74 60 64 91 96 92 84 78 66 56 51 48 50 54 53 43 34 30 26 23 24 24
100 100 98 100 100 78 94 82 97 97 100 100 99 90 78 79 61 62 79 99 100 91 85 69 60 57 54 51 53 54 45 33 28 26 26 26 26 27
53 72 98 86 98 100 95 84 99 92 98 94 78 78 77 60 61 64 96 100 97 92 76 61 59 59 56 57 55 53 36 27 28 28 27 28 31 29
100 100 97 88 90 93 99 88 100 99 86 78 76 76 57 60 61 87 98 96 92 80 73 67 65 66 64 60 51 35 27 28 28 28 31 35 34 26
97 100 95 92 100 98 99 100 95 82 78 71 64 56 56 62 84 98 98 89 80 78 72 72 70 73 76 71 40 27 27 27 28 31 39 41 36 24
100 100 100 100 100 98 94 85 80 68 60 58 57 58 69 88 99 97 87 79 76 72 71 79 78 79 80 69 38 24 25 24 25 32 36 31 22 21
100 100 100 99 92 84 83 73 61 58 70 74 82 87 90 97 89 80 78 77 76 74 79 78 80 84 80 58 36 27 26 23 27 34 31 21 17 21
100 98 83 86 84 76 66 57 61 72 85 86 82 83 90 83 76 79 81 87 79 79 82 78 82 83 73 43 31 28 25 26 30 32 29 17 15 20
87 88 83 77 62 59 59 60 68 79 82 80 85 82 78 79 82 84 92 86 84 81 73 77 82 84 62 38 31 26 25 27 31 34 28 17 13 18
83 78 66 66 69 72 70 60 63 74 73 75 79 85 91 92 93 90 86 86 89 82 75 74 68 56 39 32 27 25 25 30 32 32 25 19 11 16
77 78 80 79 83 85 77 70 72 73 80 86 89 93 100 93 85 84 90 94 90 84 79 70 51 35 31 28 27 23 26 28 30 25 23 20 14 11
93 96 89 84 84 88 82 82 85 88 92 92 94 100 95 82 88 94 95 93 83 80 78 49 30 27 25 25 29 26 20 20 19 18 17 17 14 12
100 99 92 94 91 92 90 89 90 88 82 80 80 85 86 93 98 97 94 78 79 78 54 33 26 22 23 22 19 15 9 8 10 12 13 13 10 11
100 99 98 96 88 86 82 82 84 83 83 80 88 95 99 99 98 96 75 78 73 43 34 26 23 22 17 11 10 10 8 7 8 10 10 10 8 10
100 100 99 95 94 87 88 91 88 83 84 96 100 100 98 98 95 72 79 70 42 33 26 24 23 18 10 9 8 8 7 7 7 7 7 10 8 10

GFSNE_250_rhum_096.txt.gz
RH
100 100 100 100 100 100 100 100 100 100 100 100 100 96 100 100 75 68 85 100 100 100 87 68 64 57 44 42 43 44 49 53 51 52 52 50 45 42
100 100 100 100 100 100 100 100 100 100 100 97 84 83 89 80 76 77 100 100 100 99 73 79 72 53 50 45 46 46 52 53 56 53 51 48 46 43
100 100 100 100 100 100 100 100 100 96 87 79 93 84 93 80 96 99 100 100 94 77 73 82 63 58 48 52 56 54 54 57 55 51 49 47 44 42
100 100 100 100 100 100 100 100 78 54 84 74 84 96 84 100 100 100 100 96 91 80 88 76 64 59 54 61 60 63 58 55 52 48 42 40 39 39
100 100 100 100 97 84 61 41 42 91 81 80 90 93 100 100 100 100 95 96 93 84 94 75 70 54 65 69 69 62 62 61 51 44 44 42 42 44
54 48 44 42 44 38 32 48 73 74 99 96 100 99 100 100 100 97 95 97 97 99 84 80 60 58 74 70 68 71 64 54 48 48 49 48 48 45
41 36 33 52 49 70 42 67 74 92 100 98 100 100 100 100 96 95 93 99 98 84 82 70 58 67 80 78 75 69 58 54 50 50 54 53 45 34
23 41 49 66 54 98 50 86 100 100 100 100 100 100 100 100 88 94 98 99 88 79 69 61 59 81 85 83 74 64 62 56 53 55 54 45 32 28
34 49 76 77 30 29 64 86 100 100 100 100 100 91 99 90 91 99 100 88 85 71 60 60 74 91 88 78 67 65 61 58 61 58 44 30 26 24
28 26 22 23 36 56 44 62 83 98 97 96 94 97 99 93 100 96 80 80 70 62 59 63 90 89 82 67 65 66 63 65 64 58 36 26 25 23
20 20 22 22 24 39 53 75 82 79 91 77 93 99 93 100 90 80 67 63 61 60 64 90 91 88 72 66 68 68 66 71 68 56 34 28 26 23
23 23 23 25 34 53 72 100 86 92 82 94 100 100 95 78 73 64 62 69 64 86 93 88 78 70 71 73 71 70 67 70 68 55 40 31 26 24
22 26 34 40 58 61 75 93 99 97 100 100 95 82 76 65 57 76 85 88 97 94 80 73 70 78 85 81 72 65 64 62 55 48 38 33 28 27
31 39 53 58 72 88 96 98 100 100 93 81 78 74 62 59 74 83 89 92 84 75 76 80 88 87 88 84 71 59 56 48 36 35 32 30 27 28
42 62 71 79 91 100 100 100 100 86 74 73 64 60 62 74 81 79 79 78 78 82 82 90 91 89 87 80 76 57 53 38 28 29 27 25 24 26
76 88 85 100 100 100 100 89 75 74 65 64 69 65 61 68 72 81 83 86 83 79 87 87 86 85 80 77 68 58 40 31 28 24 24 23 24 26
84 100 100 100 100 81 87 79 73 68 68 68 64 61 66 75 83 88 92 84 78 84 81 84 83 85 87 73 64 44 30 27 24 22 23 26 24 24
100 100 100 82 92 94 78 79 72 67 70 72 70 70 75 78 80 85 81 80 85 81 80 76 76 81 74 71 44 28 25 23 24 23 19 16 13 10
100 90 88 100 96 83 82 78 79 80 78 74 70 69 72 78 86 80 81 83 80 84 79 77 76 72 64 39 30 22 21 21 18 12 11 11 11 8
99 100 100 91 85 90 87 86 90 88 84 79 76 73 79 86 83 85 87 88 93 90 79 71 76 57 32 28 25 22 18 14 12 11 8 8 8 8
96 99 91 92 97 94 91 90 97 94 90 89 86 80 89 90 90 92 92 98 98 88 69 76 55 31 24 23 23 21 13 10 9 8 7 7 7 7
100 100 97 93 100 98 92 86 95 99 95 97 94 91 93 87 90 96 99 100 89 64 74 62 33 24 22 23 21 15 14 9 8 8 8 8 7 7
100 99 87 99 100 100 93 88 90 98 96 98 95 97 88 88 96 96 97 94 69 65 67 43 27 22 22 22 16 15 13 10 9 9 10 9 8 7

GFSNE_250_rhum_099.txt.gz
RH
100 99 96 100 100 100 100 100 100 100 100 100 100 100 100 100 100 92 71 52 56 73 73 79 100 100 83 78 68 70 52 46 46 54 57 59 59 56
100 100 100 100 100 100 100 100 100 100 100 100 100 100 100 95 72 54 56 60 71 90 90 100 100 98 88 90 81 62 61 46 50 60 62 61 58 52
100 100 100 100 100 100 100 100 100 100 100 100 100 100 73 66 63 51 55 72 92 100 100 100 100 96 87 92 67 65 59 48 60 60 58 54 48 45
100 100 100 100 100 100 100 100 100 100 100 100 96 70 67 62 72 63 55 89 100 100 100 100 96 84 75 79 72 65 54 50 62 62 54 49 47 47
100 100 100 100 100 100 100 100 100 100 90 60 60 54 64 84 87 68 92 88 100 100 100 100 95 85 83 82 73 66 56 54 64 66 56 50 50 49
100 100 100 100 100 99 85 84 62 40 38 41 38 67 65 68 44 85 89 100 100 100 100 96 92 85 82 75 68 64 58 68 73 65 56 55 53 53
98 80 67 36 35 34 37 34 36 34 35 35 55 86 88 33 88 79 99 100 100 100 98 95 89 83 75 63 61 63 65 83 75 62 62 58 55 54
25 24 25 26 26 28 32 31 28 26 29 38 81 38 33 64 76 100 100 100 99 89 94 93 85 70 60 60 62 73 87 79 65 66 63 59 56 57
25 26 27 26 24 26 24 22 25 26 43 37 24 27 49 77 84 92 94 80 95 96 93 78 66 59 70 78 90 89 78 68 70 68 64 60 59 59
23 23 22 22 27 26 20 20 21 21 21 23 26 44 76 78 83 97 86 100 98 91 73 61 62 85 86 82 80 72 70 74 74 70 64 59 56 58
21 22 23 24 21 20 18 21 21 21 27 30 38 61 65 84 100 88 97 86 78 68 58 67 85 84 78 68 67 75 76 75 73 72 66 59 60 54
18 19 20 21 20 22 21 23 23 28 47 55 63 80 94 100 83 99 77 72 62 60 74 81 78 68 70 74 79 78 72 71 74 71 62 66 61 42
20 20 21 21 22 23 24 27 46 52 54 72 82 92 95 86 83 68 62 63 62 65 70 68 68 75 82 79 70 68 68 69 64 58 66 59 39 29
20 22 22 24 24 29 52 64 58 73 78 82 92 91 96 77 65 60 62 65 64 67 70 73 73 76 76 79 71 65 66 59 55 60 54 38 29 26
24 24 26 28 36 40 55 66 73 76 89 92 99 93 72 70 68 63 64 67 70 72 71 74 78 85 84 77 72 59 58 53 52 43 29 24 22 21
29 31 32 39 52 64 69 76 85 98 100 99 78 74 76 69 66 67 65 65 68 72 71 79 89 86 79 75 68 64 52 56 45 27 23 22 20 18
40 46 49 58 76 80 89 98 100 100 93 77 75 79 72 74 72 70 71 75 77 76 84 89 90 87 82 71 70 60 62 42 26 22 20 22 16 11
52 61 76 87 96 99 100 100 100 88 85 81 80 76 78 82 77 79 81 81 82 86 90 95 92 90 78 71 68 59 38 27 22 21 20 16 13 9
83 88 96 100 100 100 100 99 87 88 82 81 84 82 88 89 87 86 85 87 90 94 89 91 92 85 71 65 70 35 27 22 21 18 15 12 10 9
100 100 100 100 100 100 96 97 92 82 83 90 88 89 90 94 95 96 94 93 98 96 86 91 87 80 58 72 55 26 23 23 22 17 20 14 10 10
100 100 100 100 100 98 99 96 96 90 85 93 94 90 91 92 95 100 98 96 99 97 87 89 86 73 56 73 40 26 22 22 19 19 21 16 12 11
100 100 100 100 100 100 100 93 92 97 94 89 93 94 93 97 96 100 100 98 100 92 88 91 86 66 57 65 34 25 24 24 18 24 24 19 16 15
100 100 96 100 100 100 100 100 99 98 90 86 90 96 99 100 100 100 100 100 99 89 95 98 90 64 60 55 32 26 26 27 22 31 31 28 18 15

GFSNE_250_rhum_102.txt.gz
RH
100 96 86 95 97 100 100 100 100 100 100 100 100 99 100 100 100 100 100 100 95 69 44 55 60 60 62 95 100 95 88 85 82 67 63 59 47 61
88 83 92 100 100 100 100 100 100 100 100 100 100 100 100 100 100 100 100 95 52 40 50 55 57 55 85 99 98 87 87 87 74 72 62 58 47 57
90 100 100 100 100 100 100 100 100 100 100 100 100 100 100 100 100 100 100 42 40 43 54 51 68 92 100 100 99 96 99 82 80 66 56 53 48 61
88 81 88 85 97 100 100 100 100 100 100 100 100 100 100 100 100 94 44 32 40 46 55 59 62 90 100 99 93 94 87 81 66 54 56 52 55 67
100 100 100 100 97 100 100 100 97 100 100 100 100 100 100 91 44 43 36 42 42 59 61 46 72 100 96 93 89 87 86 61 57 62 62 68 72 67
100 100 100 100 100 100 100 100 100 100 100 100 99 57 37 32 44 40 38 38 41 40 43 56 79 94 88 88 94 77 60 56 64 73 77 75 65 59
100 100 100 100 100 100 100 100 94 81 46 32 28 30 27 27 32 33 29 28 25 36 61 74 88 83 81 88 66 58 56 68 74 79 72 64 62 61
67 80 71 55 42 37 34 33 30 28 28 31 28 28 26 26 34 24 22 23 25 48 86 79 84 80 87 66 57 58 70 74 72 69 68 67 65 61
30 31 30 29 28 26 26 28 30 28 26 24 24 25 25 31 22 22 24 31 54 73 74 83 79 77 62 56 56 62 65 69 74 74 68 61 60 61
24 24 25 25 24 24 24 23 22 22 23 24 25 26 23 23 23 25 38 65 84 88 84 72 62 55 56 57 62 68 71 72 69 67 68 68 65 60
22 21 21 21 21 19 20 20 20 22 23 24 24 24 23 22 28 54 69 77 77 82 67 61 52 54 56 64 67 71 70 72 72 74 75 73 59 49
16 16 17 17 18 19 21 22 24 22 23 24 24 26 27 41 57 67 75 84 91 78 62 58 58 62 62 63 66 67 69 76 76 79 74 60 51 52
16 17 18 19 20 22 23 23 23 23 23 26 29 30 54 65 77 74 91 89 87 63 62 62 60 64 67 72 71 71 77 75 81 76 67 55 48 32
16 17 19 22 23 23 24 24 24 24 29 31 50 74 78 82 84 89 97 76 66 65 67 64 68 72 79 80 71 70 75 82 82 72 59 54 30 22
16 17 20 23 24 25 26 28 30 32 40 52 78 81 84 93 94 99 70 71 71 72 67 71 72 83 84 82 71 70 76 78 78 59 55 30 21 19
18 19 20 23 26 28 32 36 37 46 66 85 82 89 99 98 100 77 73 78 78 76 77 76 76 87 85 79 75 72 74 80 75 56 36 23 19 20
29 30 33 34 38 41 45 45 57 70 84 83 96 100 99 98 82 77 80 81 87 86 86 82 86 90 90 83 77 75 75 74 70 51 26 23 20 19
47 45 43 44 53 62 58 68 81 86 95 100 100 100 94 85 83 82 92 90 92 90 87 87 89 93 89 80 81 74 71 72 69 38 24 24 22 23
48 52 61 58 72 76 76 89 96 100 100 100 100 95 93 92 80 83 95 92 89 87 86 86 89 90 89 86 75 75 78 67 69 31 24 25 22 34
67 65 75 77 82 90 98 100 100 100 100 100 99 95 99 95 90 87 89 91 93 92 84 86 92 91 91 95 83 68 73 68 69 33 27 27 24 39
86 91 94 96 100 100 100 100 100 100 100 100 100 100 95 96 96 95 89 88 97 93 85 88 91 96 97 95 84 73 63 62 61 31 27 29 27 30
96 99 100 100 100 100 98 98 100 100 100 100 100 100 100 100 94 95 95 96 98 96 90 90 93 96 94 91 88 81 73 61 54 28 26 30 35 50
99 100 100 94 100 99 99 100 100 98 100 100 100 100 100 99 100 100 100 100 100 99 96 96 96 92 91 90 88 81 74 64 56 31 23 27 33 52

GFSNE_250_rhum_105.txt.gz
RH
100 100 100 100 100 100 100 100 94 100 100 100 93 86 98 100 100 100 100 100 100 91 94 100 100 98 34 46 51 51 51 57 95 92 79 86 73 60
100 100 100 99 100 100 99 95 87 87 88 95 100 95 81 85 100 100 100 86 85 87 95 100 100 42 34 40 36 38 45 84 86 78 80 75 62 54
100 98 91 96 100 100 94 94 98 98 95 95 91 96 100 100 100 98 92 100 100 100 100 75 33 34 32 36 31 43 66 78 82 77 80 59 55 56
100 100 100 100 100 100 100 100 100 93 82 99 99 99 100 86 92 100 100 100 100 48 36 34 32 29 35 31 30 53 80 86 79 84 69 54 58 67
100 100 100 100 100 100 100 100 100 100 100 100 100 100 100 100 100 100 80 35 32 35 34 30 26 30 25 28 46 82 79 78 82 72 54 56 58 57
100 100 100 100 100 100 100 100 100 100 100 100 100 100 100 84 49 38 32 33 35 32 28 27 27 26 30 49 75 80 73 74 62 56 55 56 57 58
93 100 100 100 100 100 100 100 100 100 100 100 98 60 40 38 34 33 32 32 25 24 26 25 28 30 45 66 73 76 67 52 53 54 59 59 57 59
40 45 54 69 98 100 100 100 100 72 48 44 42 38 34 29 32 31 23 23 25 24 26 28 32 52 59 68 80 66 54 53 56 57 58 61 63 61
32 31 31 30 31 36 42 41 44 44 41 37 32 31 30 27 26 22 23 26 26 26 29 31 58 66 68 84 72 61 58 58 57 59 63 66 67 64
28 26 28 29 32 34 35 35 34 33 30 30 28 26 26 24 22 22 25 26 27 30 35 67 71 74 85 74 61 61 60 63 62 64 65 69 70 61
25 24 24 24 25 26 27 27 26 25 25 23 21 22 22 21 24 25 26 29 30 40 69 76 85 90 74 64 62 61 66 69 67 69 68 71 68 59
22 20 18 17 17 18 18 18 17 19 18 20 21 22 23 25 25 27 34 37 51 89 80 91 94 72 66 66 65 65 72 71 73 71 70 69 67 54
15 15 15 14 14 13 14 15 17 18 19 20 22 24 25 25 31 39 49 70 86 92 98 99 77 70 71 73 70 69 74 77 75 74 70 71 68 53
13 13 13 13 13 14 15 16 16 18 20 24 27 28 30 35 45 67 91 87 93 100 100 88 75 77 77 77 76 76 78 80 78 78 74 71 64 53
13 12 12 13 13 14 16 16 18 19 27 29 28 34 38 50 67 85 90 96 100 100 92 85 77 83 86 87 81 83 81 79 80 82 76 71 64 53
16 16 16 18 20 21 22 22 24 28 30 35 38 47 59 68 93 97 100 100 100 97 91 78 86 93 90 86 81 79 82 77 77 81 79 69 64 55
24 24 26 27 28 29 32 37 46 44 48 51 60 70 84 93 97 100 100 100 100 99 86 75 89 96 91 86 82 82 81 79 83 86 85 69 61 57
30 35 39 42 39 47 57 60 68 69 66 73 80 90 92 96 100 100 100 100 100 100 94 85 87 86 89 88 87 84 84 84 88 88 84 76 65 59
39 42 46 52 56 61 68 75 83 85 88 94 95 99 100 100 100 100 100 100 100 100 96 100 94 92 86 83 83 83 85 89 95 90 84 75 68 61
60 59 57 59 64 60 68 74 82 88 94 100 100 100 100 100 100 100 100 100 100 100 98 91 93 98 94 89 85 82 92 97 93 88 89 76 69 63
81 82 87 88 88 88 89 92 94 97 96 96 100 100 100 100 100 100 100 100 99 85 86 89 97 100 94 97 92 88 87 100 100 94 89 83 74 61
90 87 91 98 100 100 100 100 100 100 99 100 100 100 100 98 100 100 99 98 98 96 94 95 99 99 100 99 100 94 89 95 99 89 88 88 81 73
98 98 99 100 100 100 100 100 100 100 100 100 100 100 100 100 100 100 96 100 100 100 100 98 99 98 100 100 100 97 96 100 96 86 79 84 77 72

GFSNE_250_rhum_108.txt.gz
RH
95 96 100 100 100 100 100 100 98 100 100 100 100 100 96 96 92 82 79 89 100 95 100 98 95 100 100 53 40 36 33 33 29 26 37 52 72 78
100 100 100 100 100 100 98 100 100 100 100 100 100 100 88 90 89 100 100 100 100 99 92 100 100 100 48 37 34 31 32 33 29 29 51 71 70 65
100 100 100 100 99 100 93 84 100 94 95 100 93 92 74 87 99 100 100 89 99 100 100 100 60 50 40 32 27 27 29 28 31 41 62 64 56 58
100 100 100 100 100 100 100 100 80 84 77 59 65 83 100 100 100 100 100 100 100 100 100 100 51 41 32 31 25 27 29 30 36 50 57 53 53 45
86 96 100 100 100 100 100 100 100 100 100 100 100 100 100 100 100 100 100 100 100 100 94 48 41 33 31 25 26 28 32 33 45 56 61 55 50 49
29 38 65 76 72 67 46 42 56 100 100 100 100 100 100 100 100 100 98 95 100 74 50 43 34 27 24 27 28 32 35 47 53 60 62 56 53 54
27 27 27 28 29 31 32 38 41 47 73 72 92 99 88 74 54 52 41 48 46 45 37 34 26 25 26 30 36 38 55 58 60 66 58 57 56 54
28 30 31 32 33 35 36 34 36 40 37 40 45 41 39 36 34 36 39 40 34 36 29 26 25 25 30 39 39 59 66 65 67 60 60 60 57 58
26 26 27 27 26 27 30 36 39 42 42 39 37 36 34 37 37 36 34 34 31 25 24 24 26 29 39 46 62 72 72 70 63 65 64 62 61 64
26 26 26 26 28 33 36 37 35 31 30 31 33 33 31 28 28 26 25 24 22 24 26 28 32 38 45 72 83 84 78 66 70 69 68 65 66 70
28 28 29 29 28 28 28 27 28 30 28 26 23 22 22 21 18 19 20 22 26 29 30 37 44 49 76 94 90 87 70 74 75 76 74 71 72 71
38 34 32 29 28 26 24 21 18 18 17 17 16 16 15 16 17 20 24 29 32 37 43 53 57 77 95 97 95 81 74 82 85 83 81 78 77 74
26 24 22 20 17 17 16 16 15 14 13 13 13 14 16 17 20 26 32 39 43 50 58 71 83 95 99 98 85 80 82 87 90 90 88 80 79 78
19 20 19 18 17 16 14 13 13 13 13 13 14 17 18 21 27 33 42 50 60 67 73 86 97 97 100 94 86 83 88 91 90 88 83 77 76 77
21 20 18 16 14 14 13 13 14 15 16 19 22 24 28 31 36 47 62 66 71 90 95 100 100 100 100 100 88 78 78 86 91 91 85 77 76 77
18 18 17 16 14 16 17 20 22 24 27 30 32 36 40 45 57 75 81 88 88 94 100 100 99 100 100 97 98 91 84 85 87 88 85 77 77 80
20 21 21 22 23 23 26 28 32 36 41 42 46 53 73 78 82 90 95 99 99 100 100 100 100 100 100 100 99 97 88 88 88 86 85 77 76 82
35 38 39 33 30 32 36 41 50 59 64 67 80 84 92 98 100 100 100 100 100 100 100 100 100 100 100 99 91 84 87 87 90 92 91 84 79 81
55 56 59 49 46 47 48 53 61 70 74 83 90 94 99 100 100 100 100 100 100 100 100 100 100 100 98 94 83 85 96 92 91 94 93 95 94 82
61 65 72 74 77 80 78 77 82 81 88 88 91 99 100 100 100 100 100 100 100 100 100 100 100 99 92 84 94 97 97 95 99 97 88 93 100 88
68 71 78 88 91 90 91 93 94 98 100 100 97 96 100 100 100 100 100 100 100 99 93 97 98 86 97 100 100 100 91 97 100 98 87 98 95 85
84 85 81 89 91 96 100 100 100 98 98 100 100 100 100 100 100 100 100 100 99 95 96 96 100 100 100 100 100 100 97 94 100 99 92 100 96 94
88 93 93 90 96 99 100 100 100 100 100 100 100 100 100 100 100 100 100 100 100 97 99 100 100 100 100 100 100 100 98 94 95 94 89 100 100 100

GFSNE_250_rhum_111.txt.gz
RH
100 100 100 100 100 100 100 100 97 96 100 100 100 97 98 100 98 100 97 100 82 87 89 71 98 91 80 100 100 100 100 98 46 38 30 28 29 30
100 100 100 100 100 100 100 100 100 92 89 96 95 96 94 98 92 100 99 80 78 48 58 90 86 97 100 100 100 100 46 46 39 32 28 30 32 39
100 100 100 100 100 100 100 100 100 100 100 100 100 100 100 100 100 79 98 50 54 55 100 100 100 94 91 96 74 45 43 34 35 29 31 34 40 51
100 100 100 100 100 100 100 100 100 100 91 57 43 57 94 95 93 61 51 56 73 76 79 100 100 66 54 43 42 38 37 30 27 29 34 41 48 60
100 95 84 90 92 100 75 52 44 28 26 26 31 33 42 55 49 53 62 57 63 72 59 51 44 39 41 37 37 35 30 27 29 33 40 45 56 65
77 66 36 66 49 28 27 26 27 30 32 36 37 37 44 51 45 44 47 46 47 46 43 47 41 41 36 36 32 28 28 32 35 46 46 57 65 63
28 26 28 27 27 28 28 31 31 32 31 33 34 35 36 37 35 34 34 38 39 40 43 36 38 39 34 28 25 28 34 38 47 52 56 66 65 61
29 28 27 26 26 27 28 29 28 29 30 29 28 28 28 28 28 30 33 38 36 34 35 38 34 28 26 23 28 34 42 55 57 63 73 70 62 66
26 25 25 25 26 28 28 27 28 28 26 26 27 26 28 27 29 30 31 33 36 37 32 26 25 22 23 29 34 40 56 71 68 82 78 68 70 74
29 28 28 28 30 30 28 27 26 27 27 27 28 28 28 30 30 32 35 30 25 23 22 20 20 24 31 40 42 57 81 76 89 89 79 70 77 88
31 31 32 33 32 30 27 27 28 27 27 27 26 26 26 27 23 20 20 20 19 18 18 19 24 31 42 47 62 83 86 96 100 87 72 73 88 98
28 26 28 30 31 30 29 27 25 22 20 21 21 18 17 17 17 16 15 14 16 18 21 25 32 43 52 76 87 93 100 100 95 75 73 80 95 98
28 26 24 24 24 22 21 22 20 19 19 18 16 16 14 13 13 13 15 18 19 21 25 33 45 62 81 89 92 100 100 100 87 78 78 80 84 85
24 23 23 22 21 20 19 18 16 15 15 14 13 13 13 14 15 17 20 26 28 30 39 53 68 86 93 96 98 100 100 100 88 93 89 89 89 87
22 20 17 18 17 16 17 16 16 15 15 15 16 19 18 21 23 27 31 34 39 49 65 77 86 93 100 100 100 100 100 99 99 97 93 100 88 86
19 19 20 21 20 18 17 17 17 17 18 23 24 27 28 31 35 38 42 52 59 77 90 97 98 100 100 100 100 100 100 100 100 97 92 94 90 94
22 23 24 25 22 22 23 23 25 30 31 31 32 38 44 55 58 60 74 82 90 97 100 100 100 100 100 100 100 100 100 96 98 92 95 93 96 91
30 34 34 37 39 41 40 44 48 50 44 38 47 51 62 77 85 90 94 97 100 100 100 100 100 100 100 100 100 100 100 100 87 94 100 99 81 85
38 43 51 56 53 54 59 60 64 60 62 63 74 71 76 85 90 95 100 100 100 100 100 100 100 100 100 100 100 99 100 99 81 94 99 81 81 77
50 50 55 62 60 61 69 74 81 80 85 83 85 84 87 93 96 96 97 99 99 100 100 100 100 100 97 100 100 95 87 85 89 100 90 86 89 85
63 61 51 51 58 64 77 88 89 89 94 93 93 97 100 99 98 100 99 99 100 100 100 98 100 99 98 99 95 92 99 96 95 92 95 96 91 87
76 71 67 61 64 74 83 90 96 94 97 99 100 100 100 100 100 100 100 100 100 100 100 100 100 100 100 100 100 100 97 89 94 100 94 93 92 94
77 82 81 72 75 82 86 91 97 99 100 99 97 97 96 100 100 100 100 100 100 100 100 100 100 100 100 100 100 100 97 100 95 96 95 98 99 99

GFSNE_250_rhum_114.txt.gz
RH
87 95 98 97 100 99 100 100 100 100 100 100 100 100 95 90 100 100 99 94 62 53 35 37 68 71 59 43 42 52 51 67 55 45 37 35 32 26
100 100 100 100 100 100 100 100 100 96 99 100 100 100 100 100 100 91 94 54 38 36 38 44 49 59 43 52 54 50 63 53 39 37 36 33 27 26
89 82 99 100 100 100 100 100 100 100 100 100 100 100 100 100 73 54 58 33 35 36 36 39 40 45 52 56 46 42 49 44 39 36 30 26 26 30
96 100 100 100 100 100 100 100 100 100 100 100 100 100 100 88 34 31 34 36 34 41 38 38 41 43 38 35 36 38 41 38 36 34 28 24 31 34
96 100 100 100 100 100 100 98 100 100 100 100 92 58 51 36 35 39 35 37 38 36 35 34 33 34 35 39 39 40 36 38 36 27 24 28 36 47
87 86 100 100 100 93 84 96 99 89 54 29 32 32 31 32 32 32 33 33 34 32 32 32 32 33 35 37 36 37 38 32 28 25 26 35 50 62
100 100 100 100 100 79 39 48 43 35 31 29 28 27 26 26 28 31 29 31 32 32 31 31 34 36 37 36 37 35 30 28 24 28 33 46 66 79
100 100 94 71 72 55 48 40 33 31 30 27 26 24 26 28 28 30 31 32 34 32 33 33 34 33 36 34 29 28 27 24 28 34 42 59 89 90
97 78 66 74 66 56 44 35 31 30 29 26 24 23 23 24 27 29 30 30 30 29 29 28 28 27 24 24 23 23 25 29 37 47 62 85 96 100
62 63 58 55 51 39 31 29 27 26 25 23 22 22 21 22 24 25 25 25 23 21 21 20 20 20 19 20 20 24 29 37 50 66 89 99 100 93
54 47 41 36 32 32 26 24 22 23 20 19 20 21 20 19 18 17 18 18 17 16 16 16 16 16 18 19 25 29 38 51 66 93 100 100 99 84
35 34 33 31 30 28 24 25 21 20 20 18 18 18 18 19 18 17 15 14 15 14 14 14 15 18 21 26 32 40 57 68 88 100 100 100 99 87
35 33 30 26 26 26 22 22 20 20 18 16 17 17 15 14 14 14 13 13 13 14 16 17 19 24 32 40 48 64 78 92 100 100 100 100 100 100
30 29 32 27 24 24 24 22 20 18 15 14 14 14 15 15 15 14 15 15 18 21 22 26 31 38 47 66 76 83 95 100 100 100 100 100 100 100
27 32 31 29 26 25 24 22 20 17 16 17 18 17 17 17 17 18 22 25 28 28 32 41 45 53 77 92 95 98 100 100 100 100 100 100 100 99
46 37 31 28 25 21 20 21 22 20 19 20 20 21 22 25 29 30 31 34 40 47 50 55 65 79 90 96 100 100 100 100 100 100 100 100 100 100
43 31 27 25 20 22 23 25 22 24 24 24 29 33 37 41 39 39 46 58 67 74 73 85 93 93 100 100 100 100 100 100 100 100 100 100 100 100
35 28 26 28 27 27 27 25 25 28 28 33 43 52 54 54 48 54 66 77 85 94 95 99 100 100 100 100 100 100 100 100 100 100 100 94 98 100
33 36 32 33 34 31 31 38 39 46 47 53 59 62 69 68 67 63 75 83 91 96 96 100 100 100 100 100 99 97 98 100 100 100 100 100 96 99
38 38 34 35 39 46 47 48 53 55 58 61 63 71 80 87 86 80 81 89 98 98 97 99 100 100 100 97 89 91 99 99 98 100 100 100 100 97
39 49 52 49 51 61 64 65 66 65 63 67 74 82 91 96 96 88 84 90 98 100 100 100 100 100 99 95 94 94 98 100 100 100 100 100 98 92
59 62 62 60 60 68 74 73 78 84 80 79 87 88 92 100 100 98 94 94 95 92 95 93 99 100 98 96 92 99 100 100 100 100 100 100 95 80
73 72 70 71 71 70 72 78 84 92 92 88 92 95 94 100 100 100 100 100 98 98 96 93 97 100 100 100 100 100 90 80 83 99 98 88 97 98

GFSNE_250_rhum_117.txt.gz
RH
92 100 97 94 100 81 64 56 59 67 82 81 83 95 100 100 100 100 100 100 100 100 100 100 43 39 39 42 47 43 39 38 34 38 35 40 36 37
100 100 98 99 89 93 85 93 92 83 87 86 92 96 96 100 100 100 100 100 93 54 52 38 38 38 36 37 36 36 37 35 36 38 37 38 40 38
100 100 100 100 100 97 83 84 92 98 96 98 100 100 100 100 100 100 100 93 74 45 42 38 34 34 34 35 36 36 36 36 35 38 41 41 40 33
100 100 100 100 100 100 99 100 100 100 100 98 84 88 79 99 93 84 94 66 71 45 37 34 33 33 32 34 34 36 37 36 40 44 43 42 39 30
100 100 100 100 100 100 100 100 98 91 82 100 100 97 94 89 94 83 73 51 42 36 33 30 30 30 32 34 38 39 40 40 43 42 41 41 30 29
100 100 100 100 100 96 98 100 100 100 100 100 94 100 100 93 72 56 43 41 38 30 29 28 29 30 31 33 36 39 41 39 39 39 36 31 27 28
100 100 100 100 99 100 100 100 100 99 91 88 95 93 88 58 54 37 40 34 31 28 26 25 26 28 30 35 36 34 33 36 34 29 29 27 27 33
100 100 100 100 100 100 100 100 100 96 98 87 85 69 44 40 46 37 30 30 23 22 20 21 23 25 24 24 26 26 27 25 24 26 26 26 30 45
100 100 100 100 100 100 97 95 93 90 99 75 47 40 47 50 34 29 25 22 19 18 18 18 18 19 20 20 20 21 20 21 22 24 27 30 42 63
100 100 100 100 100 94 96 96 100 90 64 47 47 46 35 30 26 22 19 18 18 17 16 16 14 13 14 15 16 17 17 20 23 26 33 45 62 82
100 100 100 100 100 99 99 80 59 50 47 41 45 35 29 23 18 16 18 16 14 13 12 12 13 14 14 14 16 17 20 24 29 36 51 66 84 100
100 100 100 100 87 73 62 56 43 50 47 45 31 25 19 17 16 16 13 12 12 13 13 14 14 14 14 16 20 24 26 32 41 56 70 92 100 100
100 100 92 78 69 60 54 52 43 41 34 28 22 19 16 16 14 13 13 14 14 15 17 17 17 19 20 24 27 31 36 49 65 77 96 100 100 100
95 85 74 57 51 44 34 31 28 28 25 22 20 17 16 15 13 15 17 18 18 21 22 24 25 28 32 34 38 51 59 77 88 96 100 100 100 100
69 63 53 38 35 30 28 28 25 23 23 22 20 19 16 16 17 19 20 22 26 31 38 35 37 42 48 53 65 72 79 94 100 100 100 100 100 100
48 47 37 26 26 26 26 25 24 22 24 23 21 19 18 20 20 22 26 30 34 47 45 47 48 62 73 72 85 93 94 98 100 100 100 100 100 100
24 25 23 25 28 27 26 25 26 30 26 23 21 21 22 23 25 32 37 42 50 54 52 58 65 79 85 90 96 100 100 100 100 99 100 100 100 100
29 27 27 29 31 31 30 31 31 30 27 25 23 24 30 36 41 48 51 50 56 62 61 67 77 87 96 100 100 100 100 100 100 97 96 98 100 100
33 34 36 42 39 35 32 39 31 32 31 27 27 36 42 47 50 52 58 59 68 72 76 77 82 96 100 100 100 99 99 100 100 100 97 95 93 96
43 50 47 42 38 37 35 33 45 36 34 42 44 47 57 64 67 69 64 69 84 86 83 79 85 99 100 100 96 98 100 100 100 98 100 100 100 100
51 49 47 42 38 40 43 48 45 40 47 54 59 63 70 76 80 80 73 75 90 91 97 88 92 95 96 97 98 95 100 100 100 100 100 100 100 97
49 46 44 47 50 48 48 46 52 60 62 67 79 80 81 85 88 94 89 87 93 92 97 100 100 99 95 96 92 96 99 100 100 98 100 100 96 92
51 57 56 54 53 50 49 58 66 75 77 83 84 90 94 92 91 96 99 98 96 99 97 98 100 100 99 99 96 89 88 95 94 93 100 94 90 94

GFSNE_250_rhum_120.txt.gz
RH
100 100 97 100 84 78 86 82 100 100 100 100 98 100 100 100 99 100 100 100 100 100 100 100 99 96 72 49 45 44 47 42 45 42 43 43 41 42
100 100 99 98 91 100 100 94 100 100 100 100 100 100 94 100 100 100 100 100 100 100 100 81 88 85 46 44 40 37 40 39 40 40 45 46 44 42
100 100 100 100 100 100 97 100 86 100 94 100 100 90 94 91 100 100 100 94 100 84 69 79 65 50 41 37 37 40 39 39 41 40 38 42 44 43
100 100 100 100 100 100 100 100 100 100 100 94 75 94 87 95 100 96 90 100 88 75 71 61 52 36 41 31 31 34 35 33 29 31 39 40 43 43
100 100 99 100 100 100 100 100 100 93 64 82 99 100 100 100 100 85 59 63 64 65 59 53 36 41 28 29 28 27 30 28 29 32 34 35 36 38
100 100 100 100 100 100 92 80 81 99 95 94 100 95 93 100 93 64 66 66 56 67 49 34 33 30 27 24 24 23 25 25 25 26 29 31 31 33
100 100 100 100 100 100 100 100 100 100 100 90 100 99 99 94 72 51 62 78 46 52 40 38 25 24 20 20 20 21 21 21 21 22 24 26 27 30
100 100 100 100 100 100 100 100 100 100 100 100 100 94 82 65 56 63 56 56 60 56 34 25 22 18 17 18 18 16 16 15 16 17 19 22 26 29
100 100 100 100 100 100 100 100 100 100 100 100 88 75 72 66 46 54 62 54 59 33 29 23 18 15 14 14 14 14 14 15 16 17 18 22 28 29
100 100 100 100 100 100 100 100 100 88 82 70 73 76 60 46 49 79 68 63 42 34 23 19 14 12 12 13 14 14 14 15 16 17 20 25 31 34
100 100 100 100 100 100 100 92 90 92 85 76 70 50 55 70 83 69 58 49 32 25 19 15 12 13 14 14 14 14 16 17 18 21 24 31 37 47
67 86 100 99 98 98 90 97 98 68 53 49 66 59 94 78 69 65 41 34 22 18 15 13 14 15 14 16 17 19 21 22 26 28 32 36 48 62
100 96 93 70 100 100 86 99 88 73 77 76 72 87 78 81 52 49 39 23 18 15 15 16 16 17 19 21 27 28 29 30 30 33 38 45 59 86
100 100 100 100 100 98 90 80 91 78 80 91 89 79 77 49 47 30 21 18 15 14 17 19 19 25 30 40 37 39 37 38 39 47 53 60 84 100
100 100 100 100 100 96 80 99 100 80 86 81 74 55 48 51 24 20 19 17 15 18 21 24 32 39 47 48 49 54 54 57 57 67 77 91 100 100
100 100 99 95 99 100 91 97 91 81 79 60 52 35 29 19 20 20 18 16 18 20 28 39 44 50 54 63 72 74 76 73 72 85 95 100 100 100
100 100 100 100 93 85 82 71 66 58 43 34 26 21 19 20 22 20 17 20 22 32 38 41 48 53 58 72 80 84 80 86 90 98 100 100 100 100
80 78 81 84 74 63 58 55 48 37 32 25 19 19 21 23 22 20 22 25 35 41 50 54 52 58 75 85 87 93 89 94 100 100 100 100 100 100
70 68 58 51 46 36 31 30 27 25 22 21 22 26 27 26 28 28 27 38 45 55 61 63 65 65 95 98 97 94 92 100 100 100 100 100 100 100
47 39 31 28 25 24 23 24 23 24 26 28 31 33 29 34 37 34 34 51 60 67 70 75 81 80 88 95 98 100 100 100 100 100 98 97 100 100
26 25 23 23 24 28 26 26 29 33 34 41 40 32 36 44 42 40 53 70 79 79 79 78 89 93 91 89 92 92 100 100 100 100 99 98 97 99
28 27 27 27 33 34 35 35 39 42 44 39 42 41 44 46 47 53 68 81 84 84 90 88 91 97 100 97 94 92 99 100 100 100 100 100 100 99
30 32 34 39 40 42 47 47 45 41 43 48 51 47 49 50 51 67 71 77 79 79 80 90 98 99 97 100 99 98 98 95 99 100 100 98 95 91